GFSMW_prec_precacc6_096.txt.gz
Total_Precipitation_Accumulation
0.00 0.00 0.00 0.00 0.00 0.00 0.00 0.01 0.03 0.07 0.13 0.04 0.23 0.44 0.30 0.25 0.24 0.24 0.22 0.16 0.04 0.01 0.01 0.00 0.00 0.00 0.00 0.00 0.00 0.00 0.01 0.01 0.01 0.00 0.00 0.00 0.00 0.00 0.00 0.00 0.00 0.00 0.00
0.00 0.00 0.00 0.00 0.00 0.00 0.00 0.00 0.01 0.06 0.06 0.06 0.15 0.26 0.15 0.14 0.11 0.11 0.10 0.06 0.02 0.02 0.02 0.00 0.00 0.00 0.00 0.00 0.00 0.00 0.02 0.02 0.02 0.01 0.00 0.00 0.00 0.00 0.00 0.00 0.00 0.00 0.00
0.00 0.00 0.00 0.00 0.00 0.00 0.00 0.00 0.00 0.08 0.09 0.03 0.04 0.10 0.17 0.11 0.06 0.04 0.04 0.03 0.02 0.01 0.01 0.01 0.00 0.00 0.00 0.00 0.00 0.00 0.01 0.02 0.02 0.01 0.00 0.00 0.00 0.00 0.00 0.00 0.00 0.00 0.00
0.00 0.00 0.00 0.00 0.00 0.00 0.00 0.00 0.00 0.01 0.03 0.00 0.00 0.03 0.06 0.06 0.02 0.01 0.01 0.01 0.01 0.01 0.02 0.02 0.01 0.00 0.00 0.00 0.01 0.01 0.02 0.01 0.02 0.02 0.01 0.00 0.00 0.00 0.00 0.00 0.00 0.00 0.00
0.00 0.00 0.00 0.00 0.00 0.00 0.00 0.00 0.00 0.00 0.00 0.00 0.00 0.00 0.00 0.01 0.03 0.01 0.00 0.00 0.00 0.00 0.01 0.02 0.02 0.02 0.01 0.04 0.03 0.02 0.02 0.03 0.03 0.04 0.03 0.02 0.00 0.00 0.00 0.00 0.00 0.00 0.00
0.00 0.00 0.00 0.00 0.00 0.00 0.00 0.00 0.00 0.00 0.00 0.00 0.00 0.00 0.00 0.00 0.00 0.01 0.00 0.00 0.00 0.00 0.00 0.00 0.00 0.00 0.00 0.01 0.01 0.04 0.05 0.06 0.07 0.05 0.04 0.03 0.03 0.03 0.06 0.11 0.11 0.06 0.00
0.00 0.00 0.00 0.00 0.00 0.00 0.00 0.00 0.00 0.00 0.00 0.00 0.00 0.00 0.00 0.00 0.00 0.00 0.00 0.00 0.00 0.00 0.00 0.00 0.00 0.01 0.00 0.02 0.02 0.01 0.02 0.05 0.04 0.05 0.05 0.06 0.05 0.06 0.09 0.12 0.11 0.07 0.01
0.00 0.00 0.00 0.00 0.00 0.00 0.00 0.00 0.00 0.00 0.00 0.00 0.00 0.00 0.00 0.00 0.00 0.00 0.00 0.00 0.00 0.00 0.00 0.00 0.00 0.01 0.01 0.03 0.04 0.03 0.01 0.01 0.03 0.04 0.04 0.06 0.06 0.06 0.06 0.06 0.07 0.06 0.02
0.00 0.00 0.00 0.00 0.00 0.00 0.00 0.00 0.00 0.00 0.00 0.00 0.00 0.00 0.00 0.00 0.00 0.00 0.00 0.00 0.00 0.00 0.00 0.00 0.00 0.00 0.01 0.01 0.02 0.01 0.00 0.01 0.03 0.04 0.04 0.04 0.03 0.03 0.04 0.05 0.06 0.05 0.04
0.00 0.00 0.00 0.00 0.00 0.00 0.00 0.00 0.00 0.00 0.00 0.00 0.00 0.00 0.00 0.00 0.00 0.00 0.00 0.00 0.00 0.00 0.00 0.00 0.00 0.00 0.00 0.00 0.00 0.00 0.00 0.01 0.03 0.04 0.04 0.03 0.03 0.05 0.08 0.11 0.10 0.12 0.16
0.00 0.00 0.00 0.00 0.00 0.00 0.00 0.01 0.03 0.01 0.00 0.00 0.00 0.00 0.00 0.00 0.00 0.00 0.00 0.00 0.00 0.00 0.00 0.00 0.00 0.00 0.00 0.01 0.01 0.01 0.03 0.09 0.16 0.15 0.15 0.16 0.17 0.21 0.22 0.24 0.27 0.29 0.31
0.00 0.00 0.00 0.00 0.00 0.00 0.00 0.00 0.01 0.01 0.03 0.01 0.00 0.00 0.00 0.00 0.00 0.00 0.00 0.00 0.00 0.00 0.00 0.00 0.01 0.01 0.05 0.16 0.27 0.26 0.30 0.45 0.49 0.44 0.45 0.43 0.42 0.43 0.33 0.27 0.21 0.17 0.15
0.00 0.00 0.00 0.00 0.00 0.00 0.00 0.00 0.00 0.00 0.00 0.00 0.01 0.00 0.00 0.00 0.00 0.00 0.00 0.00 0.00 0.00 0.01 0.02 0.05 0.06 0.13 0.17 0.22 0.24 0.24 0.22 0.19 0.19 0.21 0.19 0.20 0.19 0.16 0.16 0.16 0.14 0.12
0.00 0.00 0.00 0.00 0.00 0.00 0.00 0.00 0.00 0.00 0.00 0.00 0.00 0.00 0.00 0.00 0.00 0.00 0.00 0.00 0.00 0.00 0.01 0.01 0.05 0.07 0.02 0.01 0.01 0.01 0.02 0.03 0.06 0.08 0.11 0.14 0.14 0.14 0.19 0.22 0.23 0.24 0.25
0.00 0.00 0.00 0.00 0.00 0.00 0.00 0.00 0.00 0.00 0.00 0.00 0.00 0.00 0.00 0.00 0.00 0.00 0.01 0.02 0.02 0.03 0.04 0.05 0.06 0.07 0.05 0.03 0.02 0.01 0.02 0.04 0.06 0.06 0.07 0.06 0.10 0.18 0.20 0.19 0.16 0.19 0.25
0.00 0.00 0.00 0.00 0.00 0.00 0.00 0.00 0.00 0.00 0.00 0.00 0.00 0.00 0.00 0.00 0.00 0.00 0.01 0.01 0.02 0.03 0.02 0.04 0.04 0.05 0.04 0.06 0.05 0.05 0.02 0.03 0.03 0.03 0.03 0.05 0.17 0.15 0.24 0.27 0.31 0.30 0.31
0.00 0.00 0.00 0.00 0.00 0.00 0.00 0.00 0.00 0.00 0.00 0.00 0.00 0.00 0.00 0.00 0.00 0.01 0.01 0.01 0.01 0.01 0.02 0.02 0.02 0.03 0.06 0.15 0.06 0.08 0.04 0.03 0.10 0.19 0.27 0.34 0.39 0.43 0.33 0.34 0.31 0.28 0.27
0.00 0.00 0.00 0.00 0.00 0.00 0.00 0.00 0.00 0.00 0.00 0.00 0.00 0.00 0.00 0.00 0.01 0.01 0.03 0.03 0.03 0.02 0.03 0.04 0.08 0.07 0.08 0.10 0.04 0.05 0.03 0.05 0.16 0.20 0.18 0.19 0.21 0.21 0.17 0.13 0.14 0.16 0.16
0.00 0.00 0.00 0.00 0.00 0.00 0.00 0.00 0.00 0.00 0.00 0.00 0.00 0.00 0.01 0.01 0.04 0.06 0.06 0.04 0.04 0.05 0.06 0.05 0.04 0.03 0.03 0.07 0.02 0.02 0.00 0.02 0.05 0.05 0.07 0.09 0.09 0.16 0.16 0.13 0.14 0.12 0.10
0.00 0.00 0.00 0.00 0.00 0.00 0.00 0.00 0.00 0.00 0.00 0.00 0.00 0.01 0.02 0.02 0.03 0.03 0.03 0.03 0.03 0.04 0.02 0.03 0.02 0.03 0.01 0.05 0.03 0.03 0.01 0.03 0.04 0.06 0.08 0.14 0.10 0.11 0.08 0.08 0.08 0.08 0.08
0.00 0.00 0.00 0.00 0.00 0.00 0.00 0.00 0.00 0.00 0.00 0.00 0.01 0.02 0.02 0.02 0.02 0.02 0.02 0.02 0.02 0.02 0.01 0.01 0.01 0.00 0.01 0.02 0.03 0.03 0.02 0.05 0.06 0.08 0.09 0.10 0.14 0.09 0.07 0.07 0.09 0.09 0.06
0.00 0.00 0.00 0.00 0.00 0.00 0.00 0.00 0.00 0.00 0.00 0.00 0.01 0.01 0.01 0.01 0.01 0.00 0.00 0.01 0.01 0.01 0.00 0.00 0.01 0.01 0.02 0.06 0.05 0.06 0.07 0.11 0.12 0.15 0.15 0.11 0.08 0.07 0.06 0.06 0.04 0.03 0.03
0.00 0.00 0.00 0.00 0.00 0.00 0.00 0.00 0.00 0.00 0.00 0.00 0.00 0.00 0.00 0.00 0.00 0.00 0.00 0.00 0.00 0.00 0.01 0.01 0.02 0.02 0.04 0.07 0.12 0.09 0.09 0.11 0.12 0.11 0.08 0.07 0.06 0.05 0.07 0.05 0.03 0.02 0.02
0.00 0.00 0.00 0.00 0.00 0.00 0.00 0.00 0.00 0.00 0.00 0.00 0.00 0.00 0.00 0.00 0.00 0.00 0.00 0.00 0.00 0.01 0.02 0.03 0.05 0.07 0.08 0.09 0.08 0.08 0.07 0.06 0.05 0.05 0.05 0.04 0.03 0.04 0.05 0.05 0.04 0.04 0.03
0.01 0.00 0.00 0.00 0.00 0.00 0.00 0.00 0.00 0.00 0.00 0.00 0.00 0.00 0.00 0.00 0.00 0.00 0.01 0.01 0.03 0.03 0.04 0.06 0.06 0.05 0.05 0.05 0.03 0.02 0.02 0.02 0.01 0.01 0.02 0.02 0.03 0.04 0.05 0.04 0.04 0.04 0.04
0.02 0.00 0.01 0.01 0.00 0.00 0.00 0.00 0.00 0.00 0.00 0.00 0.00 0.00 0.00 0.00 0.00 0.00 0.01 0.01 0.02 0.01 0.01 0.01 0.01 0.02 0.03 0.03 0.02 0.01 0.01 0.01 0.01 0.01 0.01 0.01 0.01 0.02 0.02 0.03 0.04 0.03 0.03

GFSMW_prec_precacc6_099.txt.gz
Total_Precipitation_Accumulation
0.00 0.00 0.00 0.00 0.00 0.00 0.00 0.00 0.01 0.00 0.02 0.03 0.22 0.65 0.65 0.49 0.48 0.38 0.33 0.29 0.15 0.06 0.02 0.00 0.00 0.00 0.00 0.00 0.00 0.00 0.00 0.01 0.01 0.00 0.00 0.00 0.00 0.00 0.00 0.00 0.00 0.00 0.00
0.00 0.00 0.00 0.00 0.00 0.00 0.00 0.00 0.00 0.00 0.01 0.05 0.15 0.39 0.48 0.49 0.34 0.32 0.34 0.31 0.17 0.06 0.02 0.01 0.00 0.00 0.00 0.00 0.00 0.00 0.00 0.01 0.02 0.01 0.00 0.00 0.00 0.00 0.00 0.00 0.00 0.00 0.00
0.00 0.00 0.00 0.00 0.00 0.00 0.00 0.00 0.00 0.00 0.02 0.02 0.06 0.22 0.38 0.37 0.35 0.35 0.33 0.35 0.18 0.04 0.01 0.02 0.00 0.00 0.00 0.00 0.00 0.00 0.00 0.00 0.02 0.02 0.00 0.00 0.00 0.00 0.00 0.00 0.00 0.00 0.00
0.00 0.00 0.00 0.00 0.00 0.00 0.00 0.00 0.00 0.00 0.01 0.01 0.01 0.08 0.26 0.25 0.25 0.24 0.24 0.21 0.13 0.04 0.01 0.02 0.00 0.00 0.00 0.00 0.00 0.00 0.00 0.00 0.01 0.01 0.01 0.00 0.00 0.00 0.00 0.00 0.00 0.00 0.00
0.00 0.00 0.00 0.00 0.00 0.00 0.00 0.00 0.00 0.00 0.00 0.00 0.00 0.02 0.06 0.09 0.14 0.14 0.14 0.14 0.11 0.06 0.03 0.01 0.00 0.00 0.01 0.00 0.00 0.00 0.00 0.00 0.00 0.01 0.02 0.02 0.01 0.01 0.01 0.01 0.00 0.00 0.00
0.00 0.00 0.00 0.00 0.00 0.00 0.00 0.00 0.00 0.00 0.00 0.00 0.00 0.01 0.01 0.00 0.04 0.06 0.03 0.03 0.05 0.03 0.03 0.02 0.01 0.01 0.00 0.00 0.01 0.02 0.02 0.02 0.03 0.03 0.03 0.01 0.01 0.01 0.03 0.10 0.11 0.09 0.03
0.00 0.00 0.00 0.00 0.00 0.00 0.00 0.00 0.00 0.00 0.00 0.00 0.00 0.00 0.01 0.00 0.00 0.00 0.02 0.01 0.00 0.00 0.01 0.01 0.01 0.02 0.01 0.02 0.03 0.04 0.06 0.02 0.02 0.02 0.05 0.05 0.03 0.05 0.08 0.12 0.12 0.08 0.05
0.00 0.00 0.00 0.00 0.00 0.00 0.00 0.00 0.00 0.00 0.00 0.00 0.00 0.00 0.00 0.00 0.00 0.00 0.00 0.00 0.00 0.00 0.00 0.00 0.00 0.01 0.01 0.03 0.06 0.10 0.08 0.05 0.04 0.02 0.01 0.02 0.05 0.05 0.05 0.05 0.07 0.09 0.05
0.00 0.00 0.00 0.00 0.00 0.00 0.00 0.00 0.00 0.00 0.00 0.00 0.00 0.00 0.00 0.00 0.00 0.00 0.00 0.00 0.00 0.00 0.00 0.00 0.00 0.00 0.01 0.01 0.04 0.04 0.03 0.06 0.05 0.04 0.04 0.04 0.03 0.04 0.04 0.04 0.05 0.07 0.07
0.00 0.00 0.00 0.00 0.00 0.00 0.00 0.00 0.00 0.00 0.00 0.00 0.00 0.00 0.00 0.00 0.00 0.00 0.00 0.00 0.00 0.00 0.00 0.00 0.00 0.00 0.00 0.00 0.01 0.01 0.02 0.04 0.04 0.03 0.02 0.01 0.01 0.02 0.02 0.03 0.05 0.10 0.20
0.00 0.00 0.00 0.00 0.00 0.00 0.00 0.00 0.00 0.00 0.00 0.00 0.00 0.00 0.00 0.00 0.00 0.00 0.00 0.00 0.00 0.00 0.00 0.00 0.00 0.00 0.00 0.00 0.00 0.00 0.00 0.00 0.01 0.01 0.04 0.09 0.11 0.15 0.17 0.20 0.27 0.35 0.41
0.00 0.00 0.00 0.00 0.00 0.00 0.00 0.00 0.00 0.00 0.00 0.00 0.00 0.00 0.00 0.00 0.00 0.00 0.00 0.00 0.00 0.00 0.00 0.00 0.00 0.00 0.00 0.00 0.00 0.01 0.01 0.04 0.08 0.12 0.19 0.27 0.33 0.38 0.31 0.27 0.27 0.25 0.23
0.00 0.00 0.00 0.00 0.00 0.00 0.00 0.00 0.00 0.00 0.00 0.00 0.00 0.00 0.00 0.00 0.00 0.00 0.00 0.00 0.00 0.00 0.00 0.00 0.00 0.00 0.00 0.00 0.03 0.09 0.06 0.03 0.02 0.05 0.10 0.10 0.13 0.14 0.13 0.13 0.17 0.20 0.18
0.00 0.00 0.00 0.00 0.00 0.00 0.00 0.00 0.00 0.00 0.00 0.00 0.00 0.00 0.00 0.00 0.00 0.00 0.00 0.00 0.00 0.00 0.00 0.00 0.00 0.00 0.00 0.00 0.00 0.00 0.00 0.00 0.01 0.02 0.04 0.05 0.09 0.11 0.15 0.24 0.25 0.23 0.25
0.00 0.00 0.00 0.00 0.00 0.00 0.00 0.00 0.00 0.00 0.00 0.00 0.00 0.00 0.00 0.00 0.00 0.00 0.00 0.00 0.01 0.01 0.00 0.00 0.01 0.02 0.01 0.01 0.00 0.01 0.04 0.05 0.06 0.09 0.14 0.15 0.16 0.11 0.10 0.09 0.06 0.09 0.16
0.00 0.00 0.00 0.00 0.00 0.00 0.00 0.00 0.00 0.00 0.00 0.00 0.00 0.00 0.00 0.00 0.00 0.00 0.00 0.00 0.00 0.00 0.00 0.01 0.01 0.02 0.02 0.03 0.02 0.04 0.05 0.09 0.10 0.10 0.08 0.07 0.15 0.12 0.18 0.18 0.20 0.21 0.25
0.00 0.00 0.00 0.00 0.00 0.00 0.00 0.00 0.00 0.00 0.00 0.00 0.00 0.00 0.00 0.00 0.00 0.00 0.00 0.00 0.00 0.01 0.01 0.01 0.01 0.01 0.03 0.11 0.06 0.10 0.05 0.04 0.04 0.05 0.06 0.05 0.09 0.17 0.12 0.18 0.23 0.25 0.26
0.00 0.00 0.00 0.00 0.00 0.00 0.00 0.00 0.00 0.00 0.00 0.00 0.00 0.00 0.00 0.00 0.00 0.01 0.02 0.02 0.02 0.01 0.01 0.02 0.04 0.06 0.10 0.11 0.06 0.05 0.02 0.01 0.02 0.02 0.02 0.02 0.03 0.07 0.06 0.05 0.07 0.11 0.13
0.00 0.00 0.00 0.00 0.00 0.00 0.00 0.00 0.00 0.00 0.00 0.00 0.00 0.00 0.00 0.00 0.02 0.04 0.05 0.04 0.05 0.04 0.04 0.05 0.05 0.05 0.05 0.08 0.03 0.02 0.00 0.00 0.00 0.00 0.02 0.02 0.03 0.10 0.08 0.06 0.08 0.09 0.09
0.00 0.00 0.00 0.00 0.00 0.00 0.00 0.00 0.00 0.00 0.00 0.00 0.00 0.00 0.00 0.01 0.01 0.02 0.02 0.03 0.03 0.04 0.04 0.05 0.03 0.04 0.01 0.04 0.02 0.01 0.00 0.00 0.00 0.01 0.03 0.07 0.06 0.07 0.06 0.06 0.07 0.08 0.08
0.00 0.00 0.00 0.00 0.00 0.00 0.00 0.00 0.00 0.00 0.00 0.00 0.00 0.00 0.00 0.00 0.01 0.01 0.02 0.02 0.03 0.02 0.02 0.02 0.01 0.01 0.02 0.02 0.02 0.01 0.00 0.01 0.01 0.02 0.03 0.05 0.10 0.06 0.05 0.06 0.07 0.07 0.05
0.00 0.00 0.00 0.00 0.00 0.00 0.00 0.00 0.00 0.00 0.00 0.00 0.00 0.00 0.00 0.00 0.00 0.00 0.00 0.00 0.01 0.01 0.00 0.00 0.00 0.00 0.01 0.02 0.01 0.01 0.01 0.02 0.03 0.05 0.06 0.05 0.04 0.02 0.02 0.02 0.01 0.01 0.02
0.00 0.00 0.00 0.00 0.00 0.00 0.00 0.00 0.00 0.00 0.00 0.00 0.00 0.00 0.00 0.00 0.00 0.00 0.00 0.00 0.00 0.00 0.00 0.00 0.01 0.01 0.01 0.03 0.04 0.02 0.02 0.02 0.03 0.03 0.02 0.01 0.01 0.01 0.03 0.02 0.01 0.01 0.03
0.00 0.00 0.00 0.00 0.00 0.00 0.00 0.00 0.00 0.00 0.00 0.00 0.00 0.00 0.00 0.00 0.00 0.00 0.00 0.00 0.00 0.00 0.00 0.01 0.01 0.01 0.01 0.01 0.01 0.01 0.00 0.00 0.00 0.00 0.00 0.00 0.01 0.01 0.02 0.02 0.03 0.02 0.02
0.02 0.00 0.00 0.00 0.00 0.00 0.00 0.00 0.00 0.00 0.00 0.00 0.00 0.00 0.00 0.00 0.00 0.00 0.00 0.00 0.01 0.00 0.00 0.01 0.01 0.01 0.01 0.02 0.00 0.00 0.00 0.00 0.00 0.00 0.00 0.00 0.00 0.01 0.01 0.01 0.02 0.02 0.02
0.10 0.08 0.04 0.01 0.00 0.00 0.00 0.00 0.00 0.00 0.00 0.00 0.00 0.00 0.00 0.00 0.00 0.00 0.01 0.00 0.00 0.00 0.00 0.00 0.00 0.01 0.01 0.00 0.00 0.00 0.00 0.00 0.00 0.00 0.00 0.01 0.01 0.01 0.01 0.01 0.01 0.01 0.01

GFSMW_prec_precacc6_102.txt.gz
Total_Precipitation_Accumulation
0.00 0.00 0.00 0.00 0.00 0.00 0.00 0.00 0.00 0.00 0.00 0.00 0.06 0.27 0.37 0.28 0.32 0.23 0.16 0.17 0.15 0.10 0.04 0.00 0.01 0.01 0.01 0.03 0.00 0.00 0.00 0.00 0.00 0.00 0.00 0.00 0.00 0.00 0.00 0.00 0.00 0.00 0.00
0.00 0.00 0.00 0.00 0.00 0.00 0.00 0.00 0.00 0.00 0.00 0.00 0.05 0.20 0.38 0.40 0.35 0.40 0.35 0.28 0.17 0.09 0.03 0.02 0.01 0.00 0.00 0.00 0.00 0.00 0.00 0.00 0.00 0.00 0.00 0.00 0.00 0.00 0.00 0.00 0.00 0.00 0.00
0.00 0.00 0.00 0.00 0.00 0.00 0.00 0.00 0.00 0.00 0.01 0.00 0.03 0.19 0.33 0.47 0.62 0.63 0.52 0.38 0.22 0.09 0.05 0.03 0.02 0.01 0.00 0.00 0.00 0.00 0.00 0.00 0.00 0.00 0.00 0.00 0.00 0.00 0.00 0.00 0.00 0.00 0.00
0.00 0.00 0.00 0.00 0.00 0.00 0.00 0.00 0.00 0.00 0.00 0.00 0.01 0.11 0.40 0.43 0.60 0.58 0.39 0.36 0.28 0.14 0.07 0.05 0.02 0.02 0.01 0.00 0.00 0.00 0.00 0.00 0.00 0.00 0.00 0.00 0.00 0.01 0.00 0.00 0.00 0.00 0.00
0.00 0.00 0.00 0.00 0.00 0.00 0.00 0.00 0.00 0.00 0.00 0.00 0.00 0.02 0.13 0.25 0.39 0.53 0.49 0.38 0.30 0.18 0.09 0.06 0.02 0.04 0.05 0.04 0.01 0.00 0.00 0.00 0.00 0.00 0.00 0.00 0.00 0.01 0.01 0.01 0.00 0.00 0.00
0.00 0.00 0.00 0.00 0.00 0.00 0.00 0.00 0.00 0.00 0.00 0.00 0.00 0.01 0.01 0.02 0.12 0.28 0.32 0.30 0.25 0.16 0.12 0.09 0.06 0.07 0.07 0.08 0.05 0.02 0.00 0.00 0.00 0.00 0.02 0.00 0.00 0.01 0.01 0.01 0.02 0.04 0.02
0.00 0.00 0.00 0.00 0.00 0.00 0.00 0.00 0.00 0.00 0.00 0.00 0.00 0.00 0.01 0.00 0.01 0.04 0.10 0.14 0.13 0.08 0.06 0.05 0.05 0.06 0.05 0.05 0.08 0.05 0.06 0.03 0.02 0.02 0.05 0.05 0.01 0.01 0.01 0.01 0.01 0.02 0.03
0.00 0.00 0.00 0.00 0.00 0.00 0.00 0.00 0.00 0.00 0.00 0.00 0.00 0.00 0.00 0.00 0.00 0.00 0.01 0.02 0.05 0.03 0.01 0.01 0.01 0.02 0.03 0.02 0.06 0.12 0.10 0.08 0.07 0.06 0.05 0.05 0.04 0.01 0.00 0.00 0.01 0.03 0.03
0.00 0.00 0.00 0.00 0.00 0.00 0.00 0.00 0.00 0.00 0.00 0.00 0.00 0.00 0.00 0.00 0.00 0.00 0.00 0.00 0.01 0.01 0.00 0.00 0.00 0.00 0.00 0.01 0.02 0.04 0.05 0.06 0.05 0.05 0.07 0.08 0.05 0.06 0.04 0.01 0.00 0.02 0.05
0.00 0.00 0.00 0.00 0.00 0.00 0.00 0.00 0.00 0.00 0.00 0.00 0.00 0.00 0.00 0.00 0.00 0.00 0.00 0.00 0.00 0.00 0.01 0.00 0.00 0.00 0.00 0.00 0.01 0.01 0.02 0.04 0.04 0.05 0.04 0.06 0.03 0.03 0.03 0.02 0.02 0.01 0.05
0.00 0.00 0.00 0.00 0.00 0.00 0.00 0.00 0.00 0.00 0.00 0.00 0.00 0.00 0.00 0.00 0.00 0.00 0.00 0.00 0.00 0.00 0.00 0.00 0.00 0.00 0.00 0.00 0.00 0.00 0.00 0.00 0.01 0.01 0.02 0.01 0.02 0.06 0.05 0.06 0.08 0.09 0.11
0.00 0.00 0.00 0.00 0.00 0.00 0.00 0.00 0.00 0.00 0.00 0.00 0.00 0.00 0.00 0.00 0.00 0.00 0.00 0.00 0.00 0.00 0.00 0.00 0.00 0.00 0.00 0.00 0.00 0.00 0.00 0.00 0.00 0.00 0.02 0.02 0.02 0.05 0.05 0.07 0.08 0.10 0.14
0.00 0.00 0.00 0.00 0.00 0.00 0.00 0.00 0.00 0.00 0.00 0.00 0.00 0.00 0.00 0.00 0.00 0.00 0.00 0.00 0.00 0.00 0.00 0.00 0.00 0.00 0.00 0.00 0.00 0.00 0.00 0.00 0.00 0.00 0.02 0.03 0.05 0.03 0.03 0.06 0.11 0.19 0.27
0.00 0.00 0.00 0.00 0.00 0.00 0.00 0.00 0.00 0.00 0.00 0.00 0.00 0.00 0.00 0.00 0.00 0.00 0.00 0.00 0.00 0.00 0.00 0.00 0.00 0.00 0.00 0.00 0.00 0.00 0.00 0.01 0.03 0.06 0.07 0.05 0.09 0.15 0.22 0.31 0.34 0.29 0.18
0.00 0.00 0.00 0.00 0.00 0.00 0.00 0.00 0.00 0.00 0.00 0.00 0.00 0.00 0.00 0.00 0.00 0.00 0.00 0.00 0.00 0.00 0.00 0.00 0.00 0.00 0.01 0.00 0.00 0.01 0.04 0.04 0.05 0.10 0.17 0.22 0.31 0.27 0.19 0.14 0.07 0.05 0.06
0.00 0.00 0.00 0.00 0.00 0.00 0.00 0.00 0.00 0.00 0.00 0.00 0.00 0.00 0.00 0.00 0.00 0.00 0.00 0.00 0.00 0.00 0.00 0.00 0.00 0.00 0.00 0.01 0.01 0.02 0.04 0.08 0.11 0.15 0.16 0.16 0.21 0.12 0.15 0.12 0.10 0.08 0.05
0.00 0.00 0.00 0.00 0.00 0.00 0.00 0.00 0.00 0.00 0.00 0.00 0.00 0.00 0.00 0.00 0.00 0.00 0.00 0.00 0.00 0.00 0.00 0.00 0.01 0.01 0.02 0.06 0.04 0.08 0.05 0.08 0.11 0.10 0.09 0.07 0.09 0.12 0.04 0.06 0.04 0.03 0.05
0.00 0.00 0.00 0.00 0.00 0.00 0.00 0.00 0.00 0.00 0.00 0.00 0.00 0.00 0.00 0.00 0.00 0.00 0.00 0.00 0.01 0.01 0.01 0.02 0.03 0.05 0.09 0.10 0.07 0.07 0.03 0.03 0.05 0.05 0.04 0.04 0.03 0.03 0.02 0.00 0.00 0.01 0.02
0.00 0.00 0.00 0.00 0.00 0.00 0.00 0.00 0.00 0.00 0.00 0.00 0.00 0.00 0.00 0.00 0.00 0.00 0.00 0.02 0.03 0.04 0.04 0.06 0.07 0.07 0.07 0.11 0.06 0.05 0.01 0.02 0.03 0.02 0.02 0.02 0.01 0.03 0.01 0.00 0.00 0.01 0.02
0.00 0.00 0.00 0.00 0.00 0.00 0.00 0.00 0.00 0.00 0.00 0.00 0.00 0.00 0.00 0.00 0.00 0.00 0.01 0.03 0.03 0.04 0.06 0.07 0.06 0.08 0.04 0.09 0.05 0.04 0.01 0.02 0.01 0.00 0.01 0.03 0.01 0.01 0.00 0.00 0.01 0.02 0.02
0.00 0.00 0.00 0.00 0.00 0.00 0.00 0.00 0.00 0.00 0.00 0.00 0.00 0.00 0.00 0.00 0.01 0.01 0.02 0.04 0.05 0.04 0.05 0.04 0.03 0.02 0.03 0.06 0.06 0.03 0.01 0.00 0.00 0.00 0.00 0.00 0.01 0.00 0.00 0.01 0.02 0.02 0.01
0.00 0.00 0.00 0.00 0.00 0.00 0.00 0.00 0.00 0.00 0.00 0.00 0.00 0.00 0.00 0.00 0.02 0.02 0.03 0.03 0.03 0.03 0.02 0.03 0.02 0.01 0.01 0.02 0.01 0.00 0.00 0.00 0.00 0.01 0.01 0.00 0.00 0.00 0.00 0.00 0.00 0.00 0.00
0.00 0.00 0.00 0.00 0.00 0.00 0.00 0.00 0.00 0.01 0.00 0.00 0.01 0.01 0.00 0.01 0.02 0.03 0.02 0.03 0.02 0.01 0.01 0.00 0.00 0.00 0.00 0.00 0.00 0.00 0.00 0.00 0.00 0.00 0.00 0.00 0.00 0.00 0.01 0.00 0.00 0.01 0.01
0.00 0.00 0.00 0.00 0.00 0.00 0.00 0.00 0.01 0.02 0.01 0.01 0.01 0.02 0.02 0.01 0.00 0.01 0.00 0.00 0.00 0.00 0.00 0.00 0.00 0.00 0.00 0.00 0.00 0.00 0.00 0.00 0.00 0.00 0.00 0.00 0.00 0.00 0.00 0.01 0.02 0.02 0.01
0.01 0.01 0.01 0.00 0.02 0.02 0.02 0.01 0.02 0.03 0.02 0.01 0.01 0.01 0.01 0.01 0.00 0.00 0.01 0.01 0.01 0.01 0.01 0.01 0.00 0.00 0.01 0.01 0.00 0.00 0.00 0.00 0.00 0.00 0.00 0.00 0.00 0.00 0.00 0.00 0.01 0.01 0.01
0.11 0.11 0.07 0.03 0.03 0.03 0.04 0.04 0.03 0.03 0.03 0.01 0.01 0.01 0.00 0.00 0.00 0.01 0.02 0.02 0.01 0.00 0.00 0.00 0.00 0.00 0.00 0.00 0.00 0.00 0.00 0.00 0.00 0.00 0.00 0.00 0.00 0.00 0.00 0.00 0.00 0.00 0.00

GFSMW_prec_precacc6_105.txt.gz
Total_Precipitation_Accumulation
0.00 0.00 0.00 0.00 0.00 0.00 0.00 0.00 0.00 0.00 0.00 0.00 0.01 0.01 0.01 0.04 0.10 0.09 0.04 0.03 0.04 0.07 0.04 0.01 0.01 0.04 0.03 0.05 0.02 0.00 0.00 0.00 0.00 0.00 0.00 0.00 0.00 0.00 0.00 0.00 0.00 0.00 0.00
0.00 0.00 0.00 0.00 0.00 0.00 0.00 0.00 0.00 0.00 0.00 0.00 0.00 0.00 0.01 0.05 0.16 0.27 0.13 0.03 0.03 0.05 0.03 0.01 0.01 0.01 0.03 0.03 0.01 0.00 0.00 0.00 0.00 0.00 0.00 0.00 0.00 0.00 0.00 0.00 0.00 0.00 0.00
0.00 0.00 0.00 0.00 0.00 0.00 0.00 0.00 0.00 0.00 0.00 0.00 0.00 0.04 0.05 0.19 0.35 0.54 0.47 0.10 0.07 0.06 0.04 0.02 0.02 0.01 0.01 0.01 0.01 0.00 0.00 0.00 0.00 0.00 0.00 0.00 0.00 0.00 0.00 0.00 0.00 0.00 0.00
0.00 0.00 0.00 0.00 0.00 0.00 0.00 0.00 0.00 0.00 0.00 0.00 0.00 0.05 0.20 0.23 0.39 0.42 0.57 0.31 0.21 0.14 0.08 0.03 0.02 0.02 0.02 0.01 0.00 0.00 0.00 0.00 0.00 0.00 0.00 0.00 0.00 0.01 0.00 0.00 0.00 0.00 0.00
0.00 0.00 0.00 0.00 0.00 0.00 0.00 0.00 0.00 0.00 0.00 0.00 0.00 0.01 0.08 0.18 0.31 0.53 0.59 0.59 0.38 0.19 0.12 0.05 0.02 0.03 0.05 0.05 0.01 0.01 0.01 0.01 0.01 0.00 0.00 0.00 0.00 0.00 0.00 0.00 0.00 0.00 0.00
0.00 0.00 0.00 0.00 0.00 0.00 0.00 0.00 0.00 0.00 0.00 0.00 0.00 0.00 0.02 0.03 0.11 0.34 0.60 0.63 0.54 0.33 0.21 0.11 0.07 0.08 0.08 0.10 0.05 0.02 0.02 0.03 0.01 0.00 0.00 0.00 0.00 0.00 0.00 0.00 0.00 0.00 0.00
0.00 0.00 0.00 0.00 0.00 0.00 0.00 0.00 0.00 0.00 0.00 0.00 0.00 0.00 0.00 0.00 0.01 0.06 0.16 0.35 0.44 0.40 0.22 0.12 0.09 0.10 0.08 0.09 0.09 0.05 0.02 0.03 0.04 0.02 0.01 0.01 0.00 0.00 0.00 0.00 0.00 0.00 0.00
0.00 0.00 0.00 0.00 0.00 0.00 0.00 0.00 0.00 0.00 0.00 0.00 0.00 0.00 0.00 0.00 0.00 0.01 0.02 0.04 0.11 0.16 0.18 0.12 0.10 0.11 0.09 0.06 0.07 0.08 0.08 0.06 0.05 0.07 0.06 0.06 0.03 0.01 0.00 0.00 0.00 0.00 0.00
0.00 0.00 0.00 0.00 0.00 0.00 0.00 0.00 0.00 0.00 0.00 0.00 0.00 0.00 0.00 0.00 0.00 0.00 0.00 0.00 0.01 0.03 0.05 0.06 0.05 0.04 0.04 0.02 0.01 0.01 0.04 0.03 0.02 0.03 0.04 0.05 0.04 0.05 0.04 0.02 0.01 0.00 0.00
0.00 0.00 0.00 0.00 0.00 0.00 0.00 0.00 0.00 0.00 0.00 0.00 0.00 0.00 0.00 0.00 0.00 0.00 0.00 0.00 0.00 0.00 0.01 0.01 0.00 0.00 0.00 0.00 0.00 0.00 0.01 0.02 0.01 0.02 0.03 0.04 0.02 0.02 0.03 0.02 0.02 0.01 0.01
0.00 0.00 0.00 0.00 0.00 0.00 0.00 0.00 0.00 0.00 0.00 0.00 0.00 0.00 0.00 0.00 0.00 0.00 0.00 0.00 0.00 0.00 0.00 0.00 0.00 0.00 0.00 0.00 0.00 0.00 0.00 0.00 0.00 0.01 0.02 0.01 0.01 0.03 0.03 0.04 0.04 0.03 0.02
0.01 0.00 0.00 0.00 0.00 0.00 0.00 0.00 0.00 0.00 0.00 0.00 0.00 0.00 0.00 0.00 0.00 0.00 0.00 0.00 0.00 0.00 0.00 0.00 0.00 0.00 0.00 0.00 0.00 0.00 0.00 0.00 0.00 0.00 0.01 0.01 0.02 0.04 0.03 0.03 0.03 0.03 0.07
0.00 0.00 0.00 0.00 0.00 0.00 0.00 0.00 0.00 0.00 0.00 0.00 0.00 0.00 0.00 0.00 0.00 0.00 0.00 0.00 0.00 0.00 0.00 0.00 0.00 0.00 0.00 0.00 0.00 0.00 0.00 0.00 0.00 0.00 0.03 0.05 0.07 0.05 0.03 0.04 0.06 0.13 0.30
0.00 0.03 0.02 0.00 0.00 0.00 0.00 0.00 0.00 0.00 0.00 0.00 0.00 0.00 0.00 0.00 0.00 0.00 0.00 0.00 0.00 0.00 0.00 0.00 0.00 0.00 0.00 0.00 0.00 0.00 0.01 0.03 0.06 0.08 0.08 0.04 0.03 0.08 0.16 0.25 0.37 0.45 0.44
0.01 0.01 0.05 0.03 0.00 0.00 0.00 0.00 0.00 0.00 0.00 0.00 0.00 0.00 0.00 0.00 0.00 0.00 0.00 0.00 0.00 0.00 0.00 0.00 0.00 0.01 0.01 0.00 0.00 0.01 0.02 0.03 0.03 0.05 0.07 0.11 0.21 0.23 0.18 0.18 0.19 0.17 0.15
0.00 0.00 0.01 0.03 0.02 0.00 0.00 0.00 0.00 0.00 0.00 0.00 0.00 0.00 0.00 0.00 0.00 0.00 0.00 0.00 0.00 0.00 0.00 0.00 0.00 0.00 0.00 0.00 0.01 0.01 0.01 0.01 0.04 0.09 0.11 0.13 0.17 0.12 0.17 0.17 0.13 0.07 0.06
0.00 0.00 0.00 0.01 0.09 0.04 0.00 0.00 0.00 0.00 0.00 0.00 0.00 0.00 0.00 0.00 0.00 0.00 0.00 0.00 0.00 0.00 0.00 0.01 0.01 0.01 0.01 0.03 0.02 0.03 0.02 0.06 0.10 0.11 0.11 0.13 0.18 0.21 0.13 0.16 0.09 0.04 0.03
0.00 0.00 0.00 0.00 0.00 0.02 0.02 0.00 0.00 0.00 0.01 0.00 0.00 0.00 0.00 0.00 0.00 0.00 0.00 0.00 0.00 0.01 0.01 0.01 0.02 0.01 0.04 0.06 0.04 0.06 0.03 0.06 0.09 0.10 0.13 0.14 0.18 0.22 0.19 0.08 0.02 0.00 0.00
0.00 0.00 0.00 0.00 0.00 0.00 0.06 0.09 0.04 0.02 0.05 0.01 0.00 0.00 0.00 0.00 0.00 0.00 0.00 0.01 0.02 0.03 0.02 0.04 0.04 0.05 0.06 0.12 0.07 0.06 0.02 0.06 0.08 0.11 0.14 0.19 0.20 0.15 0.06 0.01 0.00 0.00 0.00
0.00 0.00 0.00 0.00 0.00 0.01 0.03 0.02 0.04 0.02 0.02 0.01 0.00 0.00 0.00 0.00 0.00 0.01 0.02 0.03 0.03 0.04 0.06 0.08 0.09 0.11 0.06 0.14 0.09 0.07 0.02 0.06 0.12 0.15 0.15 0.12 0.04 0.00 0.00 0.00 0.00 0.00 0.00
0.00 0.00 0.00 0.00 0.00 0.01 0.03 0.03 0.02 0.01 0.06 0.06 0.03 0.02 0.01 0.00 0.01 0.03 0.04 0.05 0.06 0.07 0.08 0.07 0.06 0.05 0.06 0.12 0.10 0.06 0.02 0.02 0.03 0.01 0.00 0.00 0.00 0.00 0.00 0.00 0.00 0.00 0.00
0.00 0.00 0.00 0.00 0.00 0.00 0.02 0.05 0.07 0.07 0.10 0.07 0.08 0.08 0.07 0.04 0.03 0.03 0.04 0.06 0.06 0.07 0.07 0.07 0.05 0.03 0.04 0.07 0.05 0.02 0.00 0.00 0.00 0.00 0.00 0.00 0.00 0.00 0.00 0.00 0.00 0.00 0.00
0.00 0.00 0.00 0.00 0.00 0.00 0.00 0.01 0.02 0.04 0.05 0.07 0.09 0.08 0.06 0.04 0.03 0.04 0.03 0.05 0.04 0.04 0.04 0.04 0.04 0.03 0.03 0.02 0.01 0.00 0.00 0.00 0.00 0.00 0.00 0.00 0.00 0.00 0.00 0.00 0.00 0.01 0.00
0.01 0.00 0.00 0.00 0.00 0.00 0.00 0.00 0.01 0.02 0.02 0.02 0.04 0.04 0.05 0.04 0.04 0.04 0.04 0.04 0.03 0.02 0.02 0.02 0.02 0.01 0.01 0.01 0.01 0.00 0.00 0.00 0.00 0.00 0.00 0.00 0.00 0.00 0.00 0.00 0.00 0.01 0.00
0.01 0.02 0.01 0.01 0.02 0.02 0.02 0.01 0.03 0.05 0.05 0.04 0.04 0.05 0.06 0.05 0.05 0.06 0.07 0.07 0.06 0.04 0.03 0.03 0.02 0.02 0.02 0.01 0.01 0.00 0.00 0.00 0.00 0.00 0.00 0.00 0.00 0.00 0.00 0.00 0.00 0.00 0.00
0.06 0.03 0.04 0.04 0.05 0.05 0.06 0.06 0.06 0.07 0.06 0.05 0.05 0.06 0.05 0.04 0.06 0.08 0.11 0.11 0.11 0.09 0.07 0.05 0.03 0.01 0.01 0.00 0.00 0.00 0.00 0.00 0.00 0.00 0.00 0.00 0.00 0.00 0.00 0.00 0.00 0.00 0.00

GFSMW_prec_precacc6_108.txt.gz
Total_Precipitation_Accumulation
0.00 0.00 0.00 0.00 0.00 0.00 0.00 0.00 0.00 0.00 0.00 0.00 0.00 0.01 0.01 0.02 0.04 0.01 0.02 0.07 0.07 0.06 0.03 0.02 0.00 0.03 0.02 0.02 0.01 0.00 0.00 0.00 0.00 0.00 0.00 0.00 0.00 0.00 0.00 0.00 0.00 0.00 0.00
0.00 0.00 0.00 0.00 0.00 0.00 0.00 0.00 0.00 0.00 0.00 0.00 0.00 0.00 0.02 0.01 0.05 0.09 0.03 0.02 0.03 0.03 0.02 0.01 0.00 0.01 0.03 0.02 0.02 0.00 0.00 0.00 0.00 0.00 0.00 0.00 0.00 0.00 0.00 0.00 0.00 0.00 0.00
0.00 0.00 0.00 0.00 0.00 0.00 0.00 0.00 0.00 0.00 0.00 0.00 0.00 0.00 0.00 0.04 0.08 0.27 0.26 0.04 0.03 0.01 0.01 0.00 0.00 0.00 0.02 0.01 0.01 0.00 0.00 0.00 0.00 0.00 0.00 0.00 0.00 0.00 0.00 0.00 0.00 0.00 0.00
0.00 0.00 0.00 0.00 0.00 0.00 0.00 0.00 0.00 0.00 0.00 0.00 0.00 0.00 0.00 0.01 0.04 0.12 0.54 0.20 0.09 0.05 0.03 0.01 0.01 0.00 0.02 0.02 0.01 0.00 0.00 0.00 0.00 0.00 0.00 0.00 0.00 0.00 0.00 0.00 0.00 0.00 0.00
0.00 0.00 0.00 0.00 0.00 0.00 0.00 0.00 0.00 0.00 0.00 0.00 0.00 0.00 0.00 0.01 0.03 0.15 0.50 0.70 0.39 0.21 0.08 0.03 0.02 0.02 0.02 0.05 0.03 0.02 0.03 0.02 0.01 0.00 0.00 0.00 0.00 0.00 0.00 0.00 0.00 0.00 0.00
0.00 0.00 0.00 0.00 0.00 0.00 0.00 0.00 0.00 0.00 0.00 0.00 0.00 0.00 0.01 0.01 0.02 0.12 0.34 0.90 0.82 0.50 0.27 0.09 0.04 0.04 0.06 0.09 0.09 0.07 0.04 0.07 0.04 0.01 0.00 0.00 0.00 0.00 0.00 0.00 0.00 0.00 0.00
0.00 0.00 0.00 0.00 0.00 0.00 0.00 0.00 0.00 0.00 0.00 0.00 0.00 0.00 0.00 0.00 0.00 0.03 0.12 0.35 0.79 0.71 0.47 0.21 0.10 0.10 0.11 0.13 0.13 0.15 0.10 0.06 0.07 0.02 0.01 0.00 0.00 0.00 0.00 0.00 0.00 0.00 0.00
0.00 0.00 0.00 0.00 0.00 0.00 0.00 0.00 0.00 0.00 0.00 0.00 0.01 0.00 0.00 0.00 0.00 0.01 0.04 0.09 0.20 0.44 0.48 0.39 0.19 0.16 0.15 0.15 0.13 0.14 0.13 0.08 0.05 0.04 0.03 0.02 0.00 0.00 0.01 0.00 0.00 0.00 0.00
0.00 0.00 0.00 0.00 0.00 0.00 0.00 0.00 0.00 0.00 0.00 0.00 0.00 0.00 0.00 0.00 0.00 0.00 0.02 0.11 0.08 0.20 0.33 0.40 0.35 0.24 0.18 0.13 0.10 0.08 0.06 0.06 0.03 0.02 0.03 0.02 0.02 0.04 0.03 0.02 0.01 0.01 0.00
0.00 0.00 0.00 0.00 0.00 0.00 0.00 0.00 0.00 0.00 0.00 0.00 0.00 0.00 0.00 0.00 0.00 0.00 0.00 0.03 0.04 0.09 0.11 0.27 0.30 0.26 0.18 0.10 0.07 0.04 0.03 0.03 0.01 0.00 0.00 0.00 0.00 0.01 0.01 0.01 0.01 0.01 0.00
0.01 0.00 0.00 0.00 0.00 0.00 0.00 0.00 0.00 0.00 0.00 0.00 0.00 0.00 0.00 0.00 0.00 0.00 0.00 0.00 0.00 0.02 0.04 0.07 0.23 0.22 0.13 0.06 0.03 0.02 0.01 0.00 0.00 0.00 0.00 0.00 0.00 0.00 0.01 0.02 0.02 0.02 0.01
0.02 0.04 0.02 0.00 0.00 0.00 0.00 0.00 0.00 0.00 0.00 0.00 0.00 0.00 0.00 0.00 0.00 0.00 0.00 0.00 0.00 0.00 0.00 0.00 0.04 0.05 0.01 0.00 0.00 0.00 0.00 0.00 0.00 0.00 0.00 0.00 0.01 0.01 0.01 0.01 0.01 0.02 0.02
0.01 0.02 0.04 0.01 0.00 0.00 0.00 0.00 0.00 0.00 0.00 0.00 0.00 0.00 0.00 0.00 0.00 0.00 0.00 0.00 0.00 0.00 0.00 0.00 0.00 0.00 0.00 0.00 0.00 0.00 0.00 0.00 0.00 0.00 0.02 0.03 0.03 0.02 0.02 0.02 0.03 0.06 0.16
0.01 0.05 0.08 0.08 0.04 0.02 0.00 0.00 0.00 0.00 0.00 0.00 0.00 0.00 0.00 0.00 0.00 0.00 0.00 0.00 0.00 0.00 0.00 0.00 0.00 0.00 0.00 0.00 0.00 0.00 0.00 0.02 0.03 0.03 0.02 0.01 0.00 0.00 0.00 0.01 0.10 0.23 0.35
0.01 0.01 0.08 0.13 0.09 0.05 0.04 0.01 0.00 0.00 0.00 0.00 0.00 0.00 0.00 0.00 0.00 0.00 0.00 0.00 0.00 0.00 0.00 0.00 0.00 0.00 0.00 0.00 0.00 0.00 0.01 0.02 0.00 0.00 0.00 0.01 0.03 0.04 0.05 0.09 0.14 0.16 0.17
0.00 0.00 0.01 0.07 0.08 0.07 0.07 0.05 0.03 0.00 0.00 0.00 0.00 0.00 0.00 0.00 0.00 0.00 0.00 0.00 0.00 0.00 0.00 0.00 0.00 0.00 0.00 0.01 0.01 0.01 0.01 0.01 0.01 0.02 0.02 0.04 0.10 0.10 0.16 0.16 0.17 0.18 0.20
0.00 0.00 0.00 0.01 0.12 0.09 0.05 0.07 0.08 0.06 0.01 0.00 0.00 0.00 0.00 0.00 0.00 0.00 0.00 0.00 0.00 0.00 0.00 0.01 0.01 0.01 0.01 0.03 0.02 0.02 0.01 0.03 0.04 0.06 0.08 0.13 0.20 0.23 0.16 0.25 0.26 0.23 0.20
0.00 0.00 0.00 0.00 0.01 0.04 0.08 0.12 0.16 0.17 0.09 0.02 0.00 0.00 0.00 0.00 0.00 0.00 0.00 0.00 0.00 0.01 0.01 0.02 0.02 0.01 0.03 0.06 0.04 0.05 0.02 0.06 0.09 0.10 0.12 0.16 0.23 0.31 0.32 0.28 0.25 0.16 0.05
0.00 0.00 0.00 0.00 0.00 0.01 0.08 0.20 0.22 0.23 0.20 0.11 0.04 0.01 0.00 0.00 0.00 0.00 0.01 0.02 0.02 0.03 0.02 0.04 0.04 0.03 0.05 0.10 0.06 0.05 0.01 0.06 0.10 0.16 0.24 0.29 0.33 0.34 0.26 0.14 0.03 0.00 0.00
0.00 0.00 0.00 0.00 0.01 0.05 0.08 0.04 0.06 0.09 0.12 0.10 0.06 0.02 0.00 0.00 0.00 0.01 0.02 0.03 0.03 0.04 0.05 0.07 0.08 0.09 0.05 0.12 0.07 0.06 0.02 0.09 0.19 0.25 0.29 0.28 0.16 0.09 0.05 0.01 0.00 0.00 0.00
0.00 0.00 0.00 0.00 0.00 0.04 0.08 0.09 0.08 0.07 0.15 0.14 0.13 0.09 0.03 0.01 0.01 0.03 0.04 0.05 0.06 0.07 0.07 0.07 0.06 0.05 0.08 0.14 0.11 0.07 0.02 0.04 0.07 0.09 0.08 0.04 0.02 0.01 0.00 0.00 0.00 0.00 0.00
0.00 0.00 0.00 0.00 0.00 0.00 0.05 0.11 0.16 0.15 0.20 0.16 0.16 0.14 0.11 0.05 0.02 0.02 0.03 0.04 0.05 0.07 0.07 0.06 0.06 0.06 0.09 0.12 0.10 0.07 0.03 0.02 0.04 0.05 0.05 0.03 0.01 0.00 0.00 0.00 0.00 0.00 0.00
0.00 0.00 0.00 0.00 0.00 0.00 0.00 0.03 0.06 0.07 0.09 0.14 0.16 0.13 0.11 0.09 0.07 0.06 0.05 0.07 0.08 0.08 0.06 0.06 0.09 0.13 0.15 0.20 0.17 0.11 0.05 0.02 0.02 0.01 0.00 0.00 0.00 0.00 0.00 0.00 0.00 0.00 0.00
0.00 0.00 0.00 0.00 0.00 0.00 0.00 0.00 0.00 0.01 0.01 0.03 0.04 0.03 0.06 0.05 0.06 0.07 0.07 0.08 0.08 0.07 0.08 0.08 0.09 0.09 0.08 0.06 0.03 0.02 0.02 0.01 0.01 0.00 0.00 0.00 0.00 0.00 0.00 0.00 0.00 0.00 0.00
0.00 0.01 0.01 0.01 0.01 0.00 0.00 0.02 0.03 0.04 0.04 0.04 0.04 0.04 0.06 0.06 0.08 0.15 0.19 0.22 0.26 0.23 0.25 0.26 0.20 0.17 0.16 0.11 0.07 0.05 0.02 0.01 0.00 0.00 0.00 0.00 0.00 0.00 0.00 0.00 0.00 0.00 0.00
0.02 0.02 0.02 0.01 0.02 0.03 0.03 0.03 0.05 0.08 0.08 0.07 0.10 0.13 0.10 0.10 0.12 0.16 0.27 0.31 0.38 0.41 0.41 0.42 0.31 0.22 0.16 0.07 0.03 0.01 0.00 0.00 0.01 0.01 0.00 0.00 0.00 0.00 0.00 0.00 0.00 0.00 0.00

GFSMW_prec_precacc6_111.txt.gz
Total_Precipitation_Accumulation
0.00 0.00 0.00 0.00 0.00 0.00 0.00 0.00 0.00 0.00 0.00 0.00 0.00 0.01 0.01 0.00 0.01 0.18 0.23 0.17 0.15 0.07 0.03 0.01 0.00 0.00 0.00 0.00 0.00 0.00 0.00 0.00 0.00 0.00 0.00 0.00 0.00 0.00 0.00 0.00 0.00 0.00 0.00
0.00 0.00 0.00 0.00 0.00 0.00 0.00 0.00 0.00 0.00 0.00 0.00 0.00 0.00 0.02 0.01 0.01 0.01 0.07 0.13 0.13 0.07 0.02 0.01 0.00 0.00 0.00 0.00 0.00 0.00 0.00 0.00 0.00 0.00 0.00 0.00 0.00 0.00 0.00 0.00 0.00 0.00 0.00
0.00 0.00 0.00 0.00 0.00 0.00 0.00 0.00 0.00 0.00 0.00 0.00 0.00 0.00 0.02 0.05 0.07 0.06 0.04 0.06 0.09 0.10 0.03 0.01 0.00 0.00 0.00 0.00 0.00 0.00 0.00 0.00 0.00 0.00 0.00 0.00 0.00 0.00 0.00 0.00 0.00 0.00 0.00
0.00 0.00 0.00 0.00 0.00 0.00 0.00 0.00 0.00 0.00 0.00 0.00 0.00 0.00 0.00 0.02 0.03 0.05 0.14 0.07 0.05 0.06 0.05 0.03 0.01 0.00 0.01 0.01 0.00 0.00 0.00 0.00 0.00 0.00 0.00 0.00 0.00 0.00 0.00 0.00 0.00 0.00 0.00
0.00 0.00 0.00 0.00 0.00 0.00 0.00 0.00 0.00 0.00 0.00 0.00 0.00 0.00 0.00 0.00 0.01 0.05 0.29 0.38 0.24 0.15 0.04 0.04 0.03 0.03 0.02 0.05 0.02 0.01 0.02 0.02 0.00 0.00 0.00 0.00 0.00 0.00 0.00 0.00 0.00 0.00 0.00
0.00 0.00 0.00 0.00 0.00 0.00 0.00 0.00 0.00 0.00 0.00 0.00 0.00 0.00 0.00 0.00 0.00 0.02 0.07 0.61 0.72 0.43 0.19 0.08 0.05 0.07 0.07 0.07 0.08 0.05 0.03 0.05 0.04 0.02 0.00 0.00 0.00 0.00 0.00 0.00 0.00 0.00 0.00
0.00 0.00 0.00 0.00 0.00 0.00 0.00 0.00 0.00 0.00 0.00 0.01 0.00 0.00 0.00 0.00 0.00 0.01 0.05 0.17 0.86 0.89 0.52 0.20 0.10 0.09 0.13 0.12 0.14 0.14 0.12 0.09 0.11 0.06 0.01 0.00 0.00 0.00 0.00 0.01 0.01 0.01 0.00
0.00 0.00 0.00 0.00 0.00 0.00 0.00 0.00 0.00 0.00 0.00 0.00 0.00 0.00 0.00 0.00 0.00 0.00 0.04 0.13 0.25 0.69 0.64 0.48 0.22 0.16 0.19 0.22 0.22 0.26 0.24 0.19 0.17 0.18 0.09 0.05 0.02 0.01 0.01 0.00 0.01 0.01 0.00
0.00 0.00 0.00 0.00 0.00 0.00 0.00 0.00 0.00 0.00 0.00 0.00 0.00 0.00 0.00 0.00 0.00 0.00 0.02 0.17 0.25 0.41 0.53 0.60 0.50 0.35 0.30 0.32 0.34 0.34 0.38 0.32 0.26 0.21 0.17 0.11 0.07 0.06 0.04 0.02 0.01 0.03 0.02
0.00 0.00 0.00 0.00 0.00 0.00 0.00 0.00 0.00 0.00 0.00 0.00 0.00 0.00 0.00 0.00 0.00 0.00 0.00 0.05 0.12 0.26 0.36 0.52 0.54 0.49 0.42 0.37 0.34 0.30 0.30 0.32 0.25 0.16 0.10 0.06 0.04 0.04 0.04 0.04 0.03 0.03 0.03
0.01 0.01 0.00 0.00 0.00 0.01 0.01 0.00 0.00 0.00 0.00 0.00 0.00 0.00 0.00 0.00 0.00 0.00 0.00 0.00 0.02 0.13 0.28 0.38 0.53 0.49 0.35 0.31 0.32 0.26 0.17 0.14 0.16 0.09 0.04 0.02 0.02 0.02 0.02 0.02 0.02 0.02 0.01
0.01 0.05 0.04 0.02 0.03 0.03 0.03 0.00 0.00 0.00 0.00 0.00 0.00 0.00 0.00 0.00 0.00 0.00 0.00 0.00 0.00 0.02 0.10 0.19 0.36 0.47 0.38 0.23 0.15 0.14 0.11 0.08 0.06 0.04 0.02 0.00 0.01 0.01 0.01 0.01 0.01 0.01 0.01
0.01 0.02 0.04 0.05 0.10 0.08 0.06 0.00 0.00 0.00 0.00 0.00 0.00 0.00 0.00 0.00 0.00 0.00 0.00 0.00 0.00 0.00 0.00 0.01 0.06 0.15 0.20 0.22 0.09 0.04 0.01 0.00 0.00 0.01 0.01 0.00 0.00 0.00 0.00 0.00 0.00 0.02 0.05
0.01 0.02 0.07 0.10 0.09 0.10 0.12 0.04 0.00 0.00 0.00 0.00 0.00 0.00 0.00 0.00 0.00 0.00 0.00 0.00 0.00 0.00 0.00 0.00 0.01 0.01 0.01 0.04 0.02 0.00 0.00 0.00 0.01 0.00 0.00 0.00 0.00 0.00 0.00 0.00 0.00 0.02 0.04
0.07 0.01 0.05 0.12 0.11 0.11 0.13 0.09 0.01 0.00 0.00 0.00 0.00 0.00 0.00 0.00 0.00 0.00 0.00 0.00 0.00 0.00 0.00 0.00 0.00 0.00 0.00 0.00 0.00 0.00 0.00 0.00 0.00 0.00 0.00 0.00 0.01 0.01 0.01 0.01 0.01 0.03 0.08
0.06 0.01 0.00 0.07 0.08 0.12 0.15 0.16 0.11 0.02 0.00 0.00 0.00 0.00 0.00 0.00 0.00 0.00 0.00 0.00 0.00 0.00 0.00 0.00 0.00 0.00 0.00 0.00 0.00 0.00 0.00 0.00 0.00 0.01 0.02 0.04 0.07 0.06 0.09 0.10 0.15 0.21 0.24
0.03 0.01 0.00 0.01 0.05 0.07 0.07 0.10 0.17 0.16 0.04 0.00 0.00 0.00 0.00 0.00 0.00 0.00 0.00 0.00 0.00 0.00 0.00 0.00 0.00 0.00 0.00 0.02 0.01 0.01 0.01 0.03 0.04 0.04 0.05 0.06 0.11 0.13 0.09 0.18 0.24 0.25 0.25
0.01 0.01 0.01 0.00 0.01 0.02 0.07 0.12 0.20 0.26 0.23 0.09 0.00 0.00 0.00 0.00 0.00 0.00 0.00 0.00 0.00 0.00 0.01 0.01 0.01 0.01 0.02 0.05 0.03 0.03 0.02 0.04 0.05 0.06 0.07 0.09 0.12 0.18 0.20 0.25 0.29 0.25 0.13
0.00 0.00 0.00 0.00 0.00 0.01 0.03 0.11 0.22 0.29 0.24 0.22 0.16 0.04 0.00 0.00 0.00 0.00 0.00 0.01 0.01 0.02 0.02 0.02 0.03 0.03 0.04 0.07 0.05 0.03 0.01 0.04 0.08 0.11 0.15 0.16 0.18 0.33 0.32 0.21 0.11 0.05 0.02
0.00 0.00 0.00 0.00 0.00 0.04 0.10 0.05 0.07 0.10 0.12 0.13 0.14 0.14 0.06 0.01 0.00 0.00 0.00 0.01 0.02 0.02 0.03 0.04 0.05 0.06 0.03 0.07 0.05 0.04 0.01 0.05 0.10 0.14 0.23 0.28 0.21 0.17 0.10 0.04 0.01 0.00 0.00
0.00 0.00 0.00 0.00 0.00 0.03 0.12 0.23 0.18 0.10 0.09 0.10 0.13 0.11 0.08 0.06 0.02 0.00 0.02 0.02 0.04 0.03 0.04 0.05 0.03 0.03 0.05 0.10 0.09 0.07 0.02 0.04 0.08 0.14 0.16 0.15 0.11 0.05 0.02 0.01 0.00 0.00 0.00
0.00 0.00 0.00 0.00 0.00 0.00 0.03 0.10 0.20 0.16 0.12 0.11 0.11 0.13 0.11 0.06 0.02 0.01 0.01 0.02 0.03 0.04 0.03 0.04 0.04 0.05 0.10 0.13 0.11 0.11 0.12 0.16 0.18 0.24 0.23 0.17 0.09 0.02 0.01 0.00 0.00 0.00 0.00
0.00 0.00 0.00 0.00 0.00 0.00 0.00 0.02 0.06 0.09 0.09 0.10 0.17 0.19 0.18 0.19 0.19 0.15 0.10 0.10 0.10 0.10 0.09 0.08 0.12 0.17 0.18 0.27 0.27 0.25 0.23 0.21 0.16 0.15 0.11 0.05 0.01 0.01 0.01 0.01 0.01 0.00 0.00
0.00 0.00 0.00 0.00 0.00 0.00 0.00 0.00 0.00 0.01 0.02 0.02 0.03 0.05 0.06 0.06 0.10 0.20 0.24 0.25 0.26 0.28 0.27 0.22 0.20 0.16 0.16 0.16 0.18 0.17 0.16 0.12 0.10 0.06 0.04 0.02 0.02 0.02 0.01 0.00 0.00 0.00 0.00
0.00 0.00 0.00 0.00 0.00 0.00 0.01 0.01 0.02 0.01 0.01 0.01 0.02 0.02 0.04 0.04 0.04 0.12 0.17 0.19 0.27 0.28 0.31 0.35 0.36 0.38 0.45 0.47 0.40 0.31 0.23 0.16 0.11 0.07 0.04 0.02 0.01 0.00 0.00 0.00 0.00 0.00 0.00
0.00 0.01 0.01 0.01 0.01 0.02 0.02 0.01 0.02 0.04 0.05 0.06 0.08 0.13 0.10 0.11 0.13 0.17 0.36 0.44 0.54 0.63 0.66 0.72 0.66 0.62 0.54 0.44 0.32 0.21 0.14 0.09 0.06 0.04 0.03 0.01 0.01 0.00 0.00 0.00 0.00 0.00 0.00

GFSMW_prec_precacc6_114.txt.gz
Total_Precipitation_Accumulation
0.00 0.00 0.00 0.00 0.00 0.00 0.00 0.00 0.00 0.00 0.00 0.00 0.01 0.01 0.00 0.00 0.01 0.21 0.27 0.17 0.40 0.40 0.23 0.04 0.03 0.01 0.01 0.00 0.00 0.00 0.00 0.00 0.00 0.00 0.00 0.00 0.00 0.00 0.00 0.00 0.00 0.00 0.00
0.00 0.00 0.00 0.00 0.00 0.00 0.00 0.00 0.00 0.00 0.00 0.00 0.00 0.01 0.00 0.00 0.00 0.02 0.10 0.18 0.35 0.26 0.10 0.03 0.02 0.01 0.00 0.00 0.00 0.00 0.00 0.00 0.00 0.00 0.00 0.00 0.00 0.00 0.00 0.00 0.00 0.00 0.00
0.00 0.00 0.00 0.00 0.00 0.00 0.00 0.00 0.00 0.00 0.00 0.00 0.00 0.00 0.01 0.01 0.02 0.02 0.05 0.12 0.22 0.21 0.10 0.02 0.00 0.01 0.00 0.00 0.00 0.00 0.00 0.00 0.00 0.00 0.00 0.00 0.00 0.00 0.00 0.00 0.00 0.00 0.00
0.00 0.00 0.00 0.00 0.00 0.00 0.00 0.00 0.00 0.00 0.00 0.00 0.00 0.00 0.00 0.02 0.02 0.01 0.02 0.04 0.09 0.16 0.13 0.06 0.01 0.00 0.00 0.00 0.00 0.00 0.00 0.00 0.00 0.00 0.00 0.00 0.00 0.00 0.00 0.00 0.00 0.00 0.00
0.00 0.00 0.00 0.00 0.00 0.00 0.00 0.00 0.00 0.00 0.00 0.00 0.00 0.00 0.00 0.00 0.01 0.04 0.03 0.06 0.06 0.06 0.09 0.08 0.03 0.02 0.01 0.00 0.00 0.00 0.00 0.00 0.00 0.00 0.00 0.00 0.00 0.00 0.00 0.00 0.00 0.00 0.00
0.00 0.00 0.00 0.00 0.00 0.00 0.00 0.00 0.00 0.00 0.01 0.00 0.00 0.00 0.00 0.00 0.00 0.01 0.03 0.10 0.30 0.16 0.06 0.07 0.06 0.04 0.03 0.00 0.00 0.00 0.00 0.01 0.01 0.01 0.00 0.00 0.00 0.00 0.00 0.00 0.00 0.00 0.00
0.00 0.00 0.00 0.00 0.00 0.00 0.00 0.00 0.00 0.00 0.00 0.00 0.00 0.00 0.00 0.00 0.00 0.00 0.01 0.05 0.41 0.55 0.23 0.09 0.07 0.06 0.07 0.05 0.03 0.03 0.04 0.05 0.07 0.05 0.02 0.01 0.00 0.00 0.00 0.01 0.01 0.01 0.00
0.00 0.00 0.00 0.00 0.00 0.00 0.00 0.00 0.00 0.00 0.00 0.00 0.00 0.00 0.00 0.00 0.00 0.00 0.01 0.07 0.13 0.44 0.45 0.26 0.14 0.10 0.11 0.12 0.13 0.15 0.16 0.15 0.16 0.20 0.11 0.06 0.02 0.02 0.01 0.00 0.01 0.02 0.00
0.00 0.00 0.00 0.00 0.00 0.00 0.00 0.00 0.00 0.00 0.01 0.00 0.00 0.00 0.00 0.00 0.00 0.00 0.00 0.07 0.19 0.31 0.43 0.49 0.40 0.28 0.21 0.26 0.31 0.34 0.38 0.35 0.34 0.35 0.32 0.21 0.13 0.10 0.08 0.05 0.03 0.03 0.02
0.00 0.00 0.00 0.00 0.00 0.00 0.00 0.00 0.01 0.04 0.02 0.00 0.00 0.00 0.00 0.00 0.00 0.00 0.00 0.02 0.09 0.24 0.40 0.47 0.60 0.54 0.40 0.43 0.50 0.52 0.47 0.51 0.52 0.46 0.42 0.34 0.22 0.16 0.14 0.11 0.09 0.08 0.10
0.00 0.00 0.00 0.00 0.00 0.01 0.03 0.04 0.06 0.04 0.02 0.00 0.00 0.00 0.00 0.00 0.00 0.00 0.00 0.01 0.02 0.12 0.31 0.52 0.58 0.64 0.49 0.49 0.63 0.59 0.47 0.40 0.45 0.47 0.35 0.23 0.19 0.17 0.11 0.09 0.08 0.07 0.07
0.00 0.00 0.02 0.02 0.03 0.04 0.05 0.06 0.05 0.03 0.00 0.00 0.00 0.00 0.00 0.01 0.00 0.00 0.00 0.00 0.00 0.03 0.14 0.38 0.64 0.68 0.68 0.51 0.48 0.50 0.46 0.39 0.28 0.23 0.26 0.23 0.14 0.06 0.04 0.04 0.03 0.02 0.02
0.01 0.00 0.01 0.04 0.11 0.11 0.09 0.05 0.02 0.01 0.00 0.00 0.00 0.01 0.00 0.01 0.01 0.00 0.00 0.00 0.00 0.00 0.03 0.06 0.22 0.45 0.45 0.57 0.46 0.37 0.30 0.27 0.21 0.20 0.13 0.09 0.04 0.02 0.01 0.01 0.01 0.01 0.02
0.09 0.04 0.02 0.03 0.07 0.12 0.16 0.12 0.04 0.01 0.00 0.00 0.00 0.00 0.01 0.01 0.01 0.00 0.00 0.00 0.00 0.00 0.01 0.01 0.02 0.11 0.19 0.29 0.43 0.29 0.23 0.16 0.06 0.04 0.04 0.01 0.01 0.00 0.00 0.00 0.00 0.00 0.01
0.29 0.15 0.04 0.05 0.04 0.10 0.15 0.17 0.06 0.02 0.00 0.00 0.00 0.00 0.01 0.01 0.01 0.00 0.00 0.00 0.00 0.00 0.00 0.00 0.01 0.03 0.05 0.16 0.18 0.14 0.05 0.05 0.02 0.01 0.01 0.00 0.00 0.00 0.01 0.01 0.00 0.01 0.03
0.24 0.21 0.11 0.05 0.03 0.07 0.12 0.16 0.12 0.05 0.00 0.00 0.00 0.00 0.01 0.01 0.01 0.01 0.00 0.00 0.00 0.00 0.00 0.00 0.00 0.01 0.02 0.07 0.08 0.06 0.01 0.02 0.00 0.01 0.01 0.01 0.02 0.01 0.02 0.05 0.07 0.08 0.09
0.06 0.12 0.12 0.06 0.06 0.03 0.06 0.05 0.11 0.14 0.05 0.00 0.00 0.00 0.00 0.00 0.00 0.01 0.01 0.00 0.01 0.01 0.01 0.00 0.00 0.00 0.01 0.03 0.02 0.02 0.01 0.01 0.02 0.02 0.02 0.02 0.04 0.05 0.03 0.06 0.06 0.07 0.11
0.03 0.04 0.07 0.04 0.09 0.08 0.10 0.05 0.06 0.12 0.21 0.10 0.00 0.00 0.00 0.00 0.00 0.00 0.00 0.00 0.01 0.01 0.01 0.01 0.02 0.01 0.01 0.03 0.01 0.02 0.01 0.02 0.02 0.03 0.04 0.05 0.06 0.09 0.07 0.05 0.07 0.10 0.11
0.00 0.01 0.01 0.01 0.02 0.06 0.09 0.17 0.10 0.12 0.14 0.16 0.13 0.03 0.00 0.00 0.00 0.00 0.00 0.00 0.01 0.02 0.01 0.01 0.01 0.01 0.01 0.05 0.04 0.02 0.01 0.03 0.04 0.05 0.06 0.06 0.08 0.22 0.16 0.09 0.09 0.06 0.03
0.00 0.00 0.00 0.00 0.00 0.02 0.10 0.14 0.13 0.15 0.11 0.07 0.10 0.12 0.06 0.01 0.00 0.00 0.00 0.01 0.01 0.01 0.02 0.02 0.03 0.04 0.02 0.06 0.06 0.04 0.01 0.02 0.04 0.06 0.13 0.18 0.14 0.19 0.11 0.05 0.03 0.02 0.01
0.00 0.00 0.00 0.00 0.00 0.00 0.08 0.31 0.27 0.18 0.13 0.05 0.06 0.09 0.08 0.06 0.01 0.00 0.00 0.01 0.02 0.02 0.02 0.03 0.02 0.03 0.04 0.06 0.07 0.07 0.02 0.02 0.06 0.09 0.13 0.21 0.18 0.09 0.06 0.04 0.04 0.04 0.02
0.00 0.00 0.00 0.00 0.00 0.00 0.00 0.07 0.25 0.26 0.13 0.06 0.04 0.09 0.13 0.10 0.04 0.01 0.00 0.01 0.01 0.02 0.02 0.03 0.03 0.03 0.06 0.11 0.10 0.12 0.15 0.20 0.18 0.27 0.30 0.29 0.26 0.19 0.14 0.11 0.09 0.07 0.05
0.00 0.00 0.00 0.00 0.00 0.00 0.00 0.01 0.04 0.11 0.17 0.19 0.21 0.21 0.20 0.29 0.30 0.21 0.18 0.11 0.07 0.06 0.07 0.07 0.08 0.10 0.10 0.17 0.18 0.19 0.26 0.25 0.19 0.23 0.23 0.20 0.16 0.14 0.13 0.11 0.07 0.05 0.03
0.00 0.00 0.00 0.00 0.00 0.00 0.00 0.01 0.01 0.02 0.03 0.08 0.10 0.16 0.29 0.25 0.26 0.35 0.37 0.41 0.46 0.43 0.45 0.42 0.36 0.30 0.27 0.29 0.31 0.29 0.27 0.27 0.22 0.18 0.16 0.15 0.14 0.12 0.09 0.07 0.05 0.03 0.02
0.00 0.00 0.00 0.00 0.00 0.00 0.00 0.01 0.02 0.03 0.04 0.03 0.03 0.06 0.05 0.04 0.03 0.04 0.06 0.05 0.09 0.11 0.14 0.19 0.28 0.35 0.46 0.58 0.57 0.46 0.38 0.32 0.29 0.26 0.22 0.18 0.14 0.09 0.05 0.03 0.01 0.00 0.00
0.00 0.00 0.01 0.02 0.02 0.02 0.02 0.01 0.01 0.02 0.04 0.07 0.08 0.10 0.07 0.08 0.09 0.12 0.29 0.34 0.39 0.42 0.40 0.48 0.59 0.73 0.70 0.72 0.60 0.46 0.32 0.23 0.14 0.08 0.05 0.04 0.03 0.01 0.01 0.00 0.00 0.00 0.00

GFSMW_prec_precacc6_117.txt.gz
Total_Precipitation_Accumulation
0.00 0.00 0.00 0.00 0.00 0.00 0.00 0.00 0.00 0.00 0.00 0.00 0.01 0.01 0.00 0.00 0.00 0.03 0.06 0.06 0.33 0.51 0.75 0.35 0.14 0.09 0.07 0.00 0.00 0.00 0.00 0.00 0.00 0.00 0.00 0.00 0.00 0.00 0.00 0.00 0.00 0.00 0.00
0.00 0.00 0.00 0.00 0.00 0.00 0.00 0.00 0.00 0.00 0.00 0.00 0.00 0.00 0.00 0.00 0.00 0.01 0.03 0.06 0.27 0.25 0.55 0.42 0.16 0.06 0.04 0.01 0.00 0.00 0.00 0.00 0.00 0.00 0.00 0.00 0.00 0.00 0.00 0.00 0.00 0.00 0.00
0.00 0.00 0.00 0.00 0.00 0.00 0.00 0.00 0.00 0.00 0.00 0.00 0.00 0.00 0.00 0.00 0.01 0.01 0.03 0.08 0.23 0.23 0.28 0.34 0.20 0.06 0.01 0.00 0.00 0.00 0.00 0.00 0.00 0.00 0.00 0.00 0.00 0.00 0.00 0.00 0.00 0.00 0.00
0.00 0.00 0.00 0.00 0.00 0.00 0.00 0.00 0.00 0.00 0.00 0.00 0.00 0.00 0.00 0.01 0.00 0.00 0.02 0.03 0.11 0.24 0.22 0.25 0.28 0.09 0.01 0.00 0.00 0.00 0.00 0.00 0.00 0.00 0.00 0.00 0.00 0.00 0.00 0.00 0.00 0.00 0.00
0.00 0.00 0.00 0.00 0.00 0.00 0.00 0.00 0.00 0.00 0.00 0.00 0.00 0.00 0.00 0.00 0.00 0.00 0.01 0.03 0.03 0.10 0.24 0.22 0.23 0.11 0.02 0.01 0.00 0.00 0.00 0.00 0.00 0.00 0.00 0.00 0.00 0.00 0.00 0.00 0.00 0.00 0.00
0.00 0.00 0.00 0.00 0.00 0.00 0.00 0.00 0.00 0.00 0.01 0.00 0.00 0.00 0.00 0.00 0.00 0.00 0.01 0.03 0.05 0.02 0.09 0.24 0.18 0.10 0.04 0.01 0.00 0.00 0.00 0.00 0.00 0.00 0.00 0.00 0.00 0.00 0.00 0.00 0.00 0.00 0.00
0.00 0.00 0.00 0.00 0.00 0.00 0.00 0.00 0.00 0.01 0.00 0.00 0.00 0.00 0.00 0.00 0.00 0.00 0.00 0.03 0.08 0.07 0.02 0.06 0.13 0.09 0.04 0.02 0.01 0.00 0.00 0.00 0.01 0.01 0.01 0.00 0.00 0.00 0.00 0.00 0.00 0.00 0.00
0.00 0.00 0.00 0.00 0.00 0.00 0.00 0.00 0.00 0.01 0.01 0.01 0.03 0.01 0.00 0.00 0.00 0.00 0.00 0.00 0.05 0.11 0.14 0.06 0.04 0.06 0.06 0.02 0.02 0.01 0.00 0.01 0.02 0.04 0.03 0.02 0.01 0.00 0.00 0.00 0.00 0.01 0.00
0.00 0.00 0.00 0.00 0.00 0.00 0.00 0.00 0.01 0.01 0.03 0.06 0.04 0.00 0.00 0.00 0.00 0.00 0.00 0.00 0.02 0.10 0.23 0.27 0.22 0.14 0.08 0.07 0.07 0.08 0.05 0.06 0.10 0.15 0.17 0.12 0.09 0.08 0.07 0.05 0.03 0.02 0.01
0.00 0.00 0.00 0.00 0.00 0.00 0.00 0.00 0.01 0.05 0.06 0.03 0.01 0.00 0.00 0.00 0.00 0.00 0.00 0.00 0.01 0.08 0.17 0.29 0.59 0.60 0.26 0.18 0.24 0.29 0.20 0.21 0.29 0.34 0.39 0.38 0.29 0.21 0.18 0.15 0.12 0.11 0.11
0.00 0.00 0.00 0.00 0.00 0.00 0.02 0.05 0.06 0.05 0.04 0.03 0.01 0.00 0.00 0.00 0.00 0.00 0.00 0.00 0.00 0.01 0.08 0.26 0.52 0.85 0.62 0.46 0.45 0.43 0.37 0.29 0.32 0.45 0.47 0.43 0.39 0.37 0.28 0.23 0.17 0.13 0.13
0.00 0.00 0.00 0.00 0.00 0.01 0.04 0.06 0.06 0.04 0.03 0.00 0.00 0.00 0.01 0.01 0.00 0.00 0.00 0.00 0.00 0.01 0.04 0.20 0.49 0.62 0.66 0.52 0.62 0.62 0.54 0.52 0.37 0.28 0.35 0.37 0.29 0.25 0.21 0.19 0.13 0.09 0.08
0.01 0.00 0.00 0.00 0.01 0.06 0.07 0.06 0.03 0.02 0.03 0.01 0.00 0.01 0.01 0.01 0.01 0.00 0.00 0.00 0.00 0.01 0.03 0.06 0.28 0.53 0.49 0.60 0.69 0.66 0.64 0.69 0.58 0.39 0.25 0.21 0.16 0.13 0.12 0.09 0.07 0.05 0.06
0.08 0.04 0.04 0.03 0.02 0.05 0.12 0.19 0.19 0.14 0.09 0.04 0.00 0.00 0.01 0.01 0.01 0.00 0.00 0.00 0.00 0.01 0.01 0.02 0.04 0.25 0.46 0.54 0.73 0.73 0.79 0.73 0.52 0.33 0.23 0.15 0.09 0.07 0.06 0.05 0.04 0.04 0.03
0.23 0.16 0.08 0.06 0.03 0.04 0.09 0.23 0.19 0.15 0.07 0.02 0.00 0.01 0.01 0.01 0.02 0.01 0.00 0.00 0.00 0.00 0.01 0.01 0.01 0.04 0.18 0.48 0.48 0.57 0.41 0.39 0.30 0.14 0.08 0.11 0.10 0.08 0.08 0.08 0.06 0.04 0.02
0.19 0.20 0.15 0.08 0.05 0.02 0.06 0.14 0.17 0.14 0.05 0.01 0.00 0.00 0.01 0.01 0.02 0.02 0.01 0.01 0.01 0.01 0.00 0.00 0.01 0.03 0.06 0.22 0.31 0.41 0.27 0.17 0.19 0.13 0.04 0.03 0.06 0.06 0.05 0.04 0.03 0.02 0.01
0.02 0.12 0.18 0.11 0.08 0.08 0.05 0.08 0.09 0.10 0.04 0.00 0.00 0.00 0.00 0.01 0.01 0.02 0.02 0.02 0.03 0.03 0.02 0.02 0.01 0.01 0.05 0.12 0.16 0.27 0.17 0.07 0.14 0.11 0.05 0.04 0.02 0.02 0.00 0.01 0.01 0.02 0.05
0.01 0.03 0.08 0.05 0.09 0.16 0.27 0.20 0.10 0.06 0.09 0.03 0.00 0.00 0.00 0.00 0.00 0.02 0.02 0.02 0.03 0.03 0.03 0.03 0.04 0.01 0.03 0.05 0.06 0.07 0.05 0.04 0.02 0.03 0.01 0.01 0.02 0.03 0.02 0.01 0.01 0.02 0.03
0.00 0.00 0.01 0.01 0.02 0.09 0.27 0.43 0.30 0.07 0.08 0.04 0.01 0.00 0.00 0.00 0.00 0.01 0.02 0.02 0.02 0.04 0.03 0.02 0.03 0.01 0.01 0.07 0.06 0.03 0.01 0.02 0.03 0.03 0.04 0.03 0.04 0.12 0.05 0.01 0.01 0.02 0.02
0.00 0.00 0.00 0.00 0.00 0.02 0.09 0.27 0.49 0.35 0.15 0.06 0.02 0.01 0.00 0.00 0.00 0.00 0.01 0.02 0.01 0.02 0.04 0.03 0.03 0.04 0.02 0.05 0.08 0.06 0.03 0.05 0.05 0.05 0.09 0.11 0.08 0.14 0.07 0.02 0.02 0.02 0.01
0.00 0.00 0.00 0.00 0.00 0.00 0.02 0.20 0.42 0.69 0.46 0.14 0.05 0.04 0.02 0.00 0.00 0.00 0.00 0.02 0.02 0.02 0.03 0.03 0.03 0.04 0.03 0.04 0.06 0.07 0.01 0.02 0.03 0.05 0.07 0.15 0.14 0.07 0.05 0.04 0.04 0.05 0.06
0.00 0.00 0.00 0.00 0.00 0.01 0.01 0.05 0.24 0.78 0.87 0.44 0.10 0.05 0.09 0.06 0.02 0.01 0.00 0.01 0.01 0.01 0.01 0.02 0.03 0.03 0.04 0.07 0.07 0.09 0.10 0.10 0.05 0.10 0.15 0.23 0.24 0.19 0.16 0.14 0.14 0.13 0.10
0.00 0.00 0.00 0.00 0.00 0.01 0.02 0.03 0.06 0.16 0.62 0.89 0.53 0.17 0.12 0.17 0.18 0.12 0.15 0.08 0.03 0.02 0.01 0.01 0.03 0.04 0.05 0.10 0.11 0.11 0.14 0.12 0.09 0.17 0.23 0.27 0.25 0.22 0.21 0.17 0.13 0.11 0.09
0.00 0.00 0.00 0.00 0.00 0.00 0.01 0.03 0.03 0.07 0.10 0.29 0.49 0.42 0.40 0.30 0.32 0.41 0.37 0.46 0.50 0.29 0.28 0.31 0.26 0.24 0.24 0.24 0.22 0.22 0.24 0.27 0.26 0.28 0.26 0.25 0.23 0.21 0.19 0.16 0.13 0.08 0.04
0.00 0.00 0.00 0.00 0.00 0.00 0.00 0.01 0.03 0.06 0.08 0.10 0.13 0.25 0.48 0.31 0.14 0.14 0.19 0.13 0.20 0.22 0.11 0.12 0.14 0.15 0.19 0.26 0.29 0.28 0.28 0.29 0.32 0.35 0.36 0.32 0.24 0.16 0.10 0.04 0.02 0.01 0.00
0.00 0.00 0.01 0.01 0.01 0.01 0.01 0.01 0.01 0.04 0.07 0.08 0.11 0.16 0.28 0.28 0.10 0.06 0.15 0.20 0.21 0.18 0.16 0.18 0.23 0.36 0.37 0.43 0.39 0.35 0.33 0.30 0.21 0.13 0.09 0.07 0.04 0.02 0.01 0.01 0.00 0.00 0.00

GFSMW_prec_precacc6_120.txt.gz
Total_Precipitation_Accumulation
0.00 0.00 0.00 0.00 0.00 0.00 0.00 0.00 0.00 0.00 0.00 0.00 0.00 0.00 0.00 0.00 0.00 0.01 0.00 0.00 0.03 0.16 0.57 0.50 0.27 0.21 0.28 0.14 0.02 0.00 0.00 0.00 0.00 0.00 0.00 0.00 0.00 0.00 0.00 0.00 0.00 0.00 0.00
0.00 0.00 0.00 0.00 0.00 0.00 0.00 0.00 0.00 0.00 0.00 0.00 0.00 0.00 0.00 0.00 0.00 0.00 0.01 0.01 0.03 0.07 0.50 0.65 0.48 0.20 0.19 0.23 0.05 0.00 0.00 0.00 0.00 0.00 0.00 0.00 0.01 0.00 0.00 0.00 0.00 0.00 0.00
0.00 0.00 0.00 0.00 0.00 0.00 0.00 0.00 0.00 0.00 0.00 0.00 0.00 0.00 0.01 0.01 0.01 0.01 0.01 0.01 0.09 0.13 0.24 0.52 0.62 0.31 0.17 0.18 0.08 0.00 0.00 0.00 0.00 0.00 0.00 0.00 0.00 0.00 0.00 0.00 0.00 0.00 0.00
0.00 0.00 0.00 0.00 0.00 0.00 0.00 0.00 0.00 0.00 0.00 0.00 0.00 0.00 0.00 0.01 0.00 0.00 0.01 0.01 0.04 0.13 0.16 0.27 0.58 0.43 0.13 0.09 0.07 0.01 0.00 0.00 0.00 0.00 0.00 0.00 0.00 0.00 0.00 0.00 0.00 0.00 0.00
0.00 0.00 0.00 0.00 0.00 0.00 0.00 0.00 0.00 0.00 0.00 0.00 0.00 0.00 0.00 0.00 0.00 0.01 0.01 0.02 0.01 0.05 0.17 0.23 0.44 0.43 0.21 0.08 0.05 0.03 0.00 0.00 0.00 0.00 0.00 0.00 0.00 0.00 0.00 0.00 0.00 0.00 0.00
0.00 0.00 0.00 0.00 0.00 0.00 0.00 0.00 0.00 0.00 0.00 0.00 0.00 0.00 0.00 0.01 0.00 0.01 0.01 0.02 0.02 0.01 0.07 0.22 0.36 0.40 0.30 0.12 0.06 0.02 0.00 0.00 0.00 0.00 0.00 0.00 0.00 0.00 0.00 0.00 0.00 0.00 0.00
0.00 0.00 0.00 0.00 0.00 0.00 0.00 0.00 0.00 0.01 0.01 0.01 0.00 0.01 0.03 0.00 0.00 0.00 0.01 0.02 0.07 0.04 0.01 0.06 0.20 0.35 0.34 0.16 0.06 0.02 0.00 0.00 0.00 0.00 0.00 0.00 0.00 0.00 0.00 0.00 0.00 0.00 0.00
0.00 0.00 0.00 0.00 0.00 0.00 0.00 0.00 0.01 0.01 0.01 0.01 0.05 0.04 0.01 0.00 0.00 0.00 0.01 0.01 0.05 0.08 0.03 0.00 0.02 0.18 0.33 0.20 0.08 0.01 0.00 0.00 0.00 0.00 0.00 0.00 0.00 0.00 0.00 0.00 0.00 0.00 0.00
0.00 0.00 0.00 0.00 0.00 0.00 0.00 0.00 0.01 0.01 0.03 0.06 0.04 0.02 0.03 0.00 0.00 0.01 0.01 0.01 0.02 0.08 0.11 0.06 0.02 0.02 0.13 0.21 0.08 0.02 0.00 0.00 0.00 0.00 0.00 0.01 0.01 0.01 0.01 0.01 0.01 0.01 0.02
0.00 0.00 0.00 0.00 0.00 0.00 0.00 0.00 0.01 0.01 0.05 0.04 0.03 0.02 0.01 0.00 0.00 0.00 0.00 0.00 0.01 0.04 0.08 0.16 0.31 0.30 0.12 0.07 0.11 0.07 0.02 0.00 0.02 0.04 0.07 0.09 0.11 0.08 0.07 0.07 0.07 0.06 0.05
0.00 0.00 0.00 0.00 0.00 0.00 0.00 0.00 0.01 0.01 0.04 0.04 0.03 0.04 0.06 0.02 0.00 0.00 0.00 0.00 0.00 0.01 0.03 0.13 0.41 0.73 0.53 0.29 0.12 0.12 0.10 0.04 0.02 0.07 0.15 0.21 0.21 0.23 0.20 0.17 0.15 0.13 0.11
0.00 0.00 0.00 0.00 0.00 0.00 0.01 0.01 0.01 0.02 0.04 0.01 0.05 0.08 0.06 0.01 0.00 0.00 0.00 0.00 0.00 0.01 0.00 0.03 0.24 0.59 0.88 0.65 0.42 0.31 0.21 0.22 0.16 0.09 0.12 0.17 0.19 0.23 0.21 0.18 0.16 0.14 0.13
0.00 0.00 0.00 0.00 0.00 0.03 0.04 0.03 0.02 0.02 0.04 0.04 0.08 0.06 0.04 0.01 0.00 0.00 0.00 0.00 0.00 0.01 0.00 0.01 0.13 0.27 0.46 0.73 0.65 0.49 0.45 0.51 0.46 0.27 0.18 0.19 0.20 0.16 0.13 0.11 0.11 0.12 0.13
0.00 0.00 0.02 0.02 0.00 0.01 0.07 0.13 0.17 0.15 0.13 0.11 0.10 0.05 0.02 0.01 0.01 0.00 0.00 0.00 0.00 0.01 0.01 0.01 0.03 0.17 0.39 0.56 0.55 0.68 0.80 0.80 0.78 0.66 0.53 0.38 0.24 0.16 0.11 0.10 0.11 0.12 0.14
0.00 0.02 0.05 0.04 0.02 0.01 0.04 0.15 0.18 0.18 0.16 0.13 0.08 0.03 0.01 0.01 0.01 0.01 0.00 0.00 0.00 0.00 0.01 0.01 0.01 0.03 0.21 0.53 0.57 0.72 0.69 0.81 0.76 0.62 0.52 0.49 0.38 0.23 0.16 0.15 0.15 0.14 0.15
0.00 0.01 0.05 0.06 0.05 0.01 0.01 0.12 0.17 0.17 0.17 0.13 0.06 0.01 0.01 0.01 0.01 0.01 0.01 0.01 0.01 0.01 0.00 0.00 0.00 0.02 0.05 0.29 0.44 0.56 0.53 0.52 0.60 0.48 0.30 0.22 0.22 0.20 0.18 0.16 0.16 0.15 0.11
0.00 0.00 0.06 0.06 0.04 0.06 0.02 0.11 0.17 0.14 0.14 0.13 0.05 0.01 0.01 0.01 0.01 0.01 0.01 0.02 0.02 0.02 0.02 0.02 0.01 0.01 0.05 0.12 0.21 0.42 0.38 0.26 0.36 0.46 0.29 0.15 0.13 0.13 0.08 0.09 0.08 0.07 0.07
0.00 0.00 0.02 0.01 0.01 0.09 0.19 0.22 0.21 0.16 0.12 0.10 0.07 0.00 0.00 0.01 0.01 0.01 0.02 0.02 0.02 0.02 0.02 0.02 0.02 0.01 0.04 0.06 0.09 0.17 0.31 0.15 0.12 0.17 0.21 0.13 0.08 0.11 0.08 0.05 0.03 0.01 0.01
0.00 0.00 0.00 0.00 0.00 0.02 0.19 0.33 0.48 0.22 0.18 0.10 0.06 0.01 0.00 0.00 0.01 0.01 0.02 0.02 0.02 0.02 0.02 0.01 0.02 0.01 0.02 0.08 0.08 0.05 0.09 0.10 0.11 0.06 0.07 0.06 0.04 0.08 0.03 0.01 0.00 0.00 0.01
0.00 0.00 0.00 0.00 0.00 0.01 0.04 0.20 0.55 0.56 0.28 0.21 0.08 0.02 0.00 0.00 0.00 0.01 0.01 0.02 0.02 0.03 0.04 0.02 0.02 0.04 0.01 0.05 0.08 0.06 0.02 0.05 0.04 0.05 0.07 0.07 0.04 0.05 0.01 0.00 0.00 0.00 0.01
0.00 0.00 0.00 0.00 0.00 0.00 0.00 0.06 0.33 0.77 0.62 0.35 0.17 0.06 0.00 0.00 0.00 0.01 0.01 0.02 0.01 0.01 0.02 0.03 0.03 0.03 0.02 0.03 0.05 0.06 0.01 0.01 0.01 0.01 0.03 0.07 0.05 0.02 0.01 0.01 0.00 0.02 0.04
0.00 0.00 0.00 0.00 0.00 0.01 0.01 0.02 0.12 0.73 1.16 0.78 0.37 0.14 0.03 0.01 0.00 0.01 0.01 0.01 0.01 0.01 0.01 0.02 0.02 0.02 0.02 0.04 0.05 0.06 0.07 0.06 0.02 0.03 0.05 0.09 0.06 0.03 0.03 0.04 0.06 0.08 0.07
0.00 0.00 0.00 0.00 0.00 0.01 0.02 0.02 0.04 0.15 0.81 1.21 0.99 0.52 0.12 0.04 0.04 0.03 0.03 0.02 0.01 0.01 0.01 0.00 0.01 0.01 0.01 0.04 0.06 0.08 0.10 0.09 0.06 0.12 0.16 0.16 0.12 0.11 0.12 0.10 0.08 0.09 0.11
0.00 0.00 0.00 0.00 0.00 0.00 0.01 0.02 0.03 0.07 0.23 0.59 0.90 1.06 0.74 0.23 0.18 0.28 0.23 0.28 0.27 0.10 0.04 0.04 0.03 0.04 0.06 0.07 0.08 0.11 0.14 0.15 0.17 0.24 0.23 0.21 0.21 0.20 0.19 0.17 0.14 0.09 0.04
0.00 0.00 0.00 0.00 0.00 0.00 0.01 0.02 0.03 0.04 0.08 0.26 0.50 0.58 1.02 0.80 0.31 0.24 0.37 0.38 0.40 0.45 0.24 0.09 0.07 0.05 0.05 0.08 0.08 0.11 0.15 0.17 0.21 0.24 0.26 0.24 0.18 0.14 0.09 0.04 0.02 0.01 0.00
0.00 0.00 0.00 0.00 0.00 0.00 0.01 0.02 0.02 0.04 0.06 0.09 0.30 0.37 0.53 0.85 0.60 0.25 0.19 0.29 0.41 0.37 0.32 0.28 0.18 0.18 0.15 0.13 0.10 0.13 0.19 0.21 0.18 0.13 0.08 0.05 0.03 0.01 0.01 0.00 0.00 0.00 0.00

GFSMW_prec_precacc6_126.txt.gz
Total_Precipitation_Accumulation
0.00 0.00 0.00 0.00 0.00 0.00 0.00 0.00 0.00 0.00 0.00 0.00 0.00 0.00 0.01 0.00 0.00 0.00 0.01 0.01 0.01 0.02 0.02 0.01 0.03 0.01 0.04 0.16 0.28 0.23 0.14 0.14 0.12 0.09 0.08 0.04 0.00 0.00 0.00 0.00 0.00 0.00 0.00
0.00 0.00 0.00 0.00 0.00 0.00 0.00 0.00 0.00 0.00 0.00 0.00 0.00 0.00 0.00 0.01 0.00 0.00 0.00 0.01 0.01 0.01 0.02 0.02 0.02 0.02 0.05 0.09 0.32 0.40 0.21 0.09 0.17 0.06 0.03 0.04 0.06 0.02 0.00 0.00 0.00 0.00 0.00
0.00 0.00 0.00 0.00 0.00 0.00 0.00 0.00 0.00 0.00 0.00 0.00 0.00 0.00 0.00 0.01 0.01 0.01 0.00 0.00 0.01 0.02 0.02 0.02 0.03 0.07 0.10 0.17 0.19 0.31 0.21 0.10 0.10 0.09 0.01 0.00 0.02 0.02 0.01 0.00 0.00 0.00 0.00
0.00 0.00 0.00 0.00 0.00 0.00 0.00 0.00 0.00 0.00 0.00 0.00 0.00 0.00 0.00 0.00 0.00 0.00 0.00 0.00 0.00 0.01 0.02 0.02 0.02 0.13 0.20 0.19 0.19 0.24 0.17 0.08 0.07 0.07 0.03 0.00 0.00 0.00 0.01 0.01 0.00 0.00 0.00
0.00 0.00 0.00 0.00 0.00 0.00 0.00 0.00 0.00 0.00 0.00 0.00 0.00 0.00 0.01 0.00 0.00 0.00 0.01 0.01 0.01 0.01 0.01 0.02 0.02 0.10 0.18 0.24 0.19 0.25 0.29 0.14 0.05 0.02 0.02 0.00 0.00 0.00 0.00 0.00 0.00 0.00 0.00
0.00 0.00 0.00 0.00 0.00 0.00 0.00 0.00 0.00 0.00 0.00 0.00 0.00 0.01 0.01 0.01 0.01 0.01 0.01 0.01 0.01 0.01 0.01 0.02 0.02 0.07 0.16 0.20 0.24 0.29 0.24 0.19 0.11 0.04 0.02 0.00 0.01 0.00 0.00 0.00 0.00 0.00 0.00
0.00 0.00 0.00 0.00 0.00 0.00 0.00 0.00 0.00 0.00 0.00 0.00 0.01 0.02 0.02 0.02 0.03 0.02 0.01 0.01 0.01 0.00 0.00 0.01 0.01 0.06 0.13 0.23 0.22 0.37 0.42 0.20 0.13 0.07 0.03 0.00 0.00 0.00 0.00 0.00 0.00 0.00 0.02
0.00 0.00 0.00 0.00 0.00 0.00 0.00 0.00 0.00 0.00 0.00 0.00 0.01 0.01 0.02 0.02 0.02 0.03 0.01 0.01 0.01 0.00 0.00 0.00 0.00 0.02 0.11 0.26 0.32 0.31 0.41 0.28 0.16 0.09 0.05 0.02 0.00 0.02 0.01 0.00 0.01 0.02 0.04
0.00 0.00 0.00 0.00 0.00 0.00 0.00 0.00 0.00 0.00 0.00 0.00 0.00 0.02 0.05 0.03 0.02 0.01 0.01 0.01 0.01 0.01 0.00 0.00 0.00 0.00 0.05 0.25 0.36 0.35 0.40 0.35 0.26 0.15 0.08 0.04 0.02 0.00 0.00 0.00 0.00 0.00 0.01
0.00 0.00 0.00 0.00 0.00 0.00 0.00 0.00 0.00 0.00 0.00 0.00 0.00 0.02 0.05 0.04 0.02 0.02 0.02 0.02 0.02 0.01 0.01 0.03 0.01 0.00 0.01 0.05 0.29 0.39 0.44 0.37 0.28 0.21 0.15 0.09 0.04 0.00 0.00 0.00 0.00 0.00 0.00
0.00 0.00 0.00 0.00 0.00 0.00 0.00 0.00 0.00 0.00 0.00 0.00 0.01 0.03 0.09 0.10 0.04 0.03 0.02 0.02 0.02 0.02 0.01 0.02 0.05 0.08 0.05 0.01 0.04 0.20 0.37 0.36 0.26 0.29 0.24 0.11 0.05 0.03 0.00 0.00 0.01 0.02 0.00
0.00 0.00 0.00 0.00 0.00 0.00 0.00 0.00 0.00 0.00 0.00 0.00 0.01 0.03 0.07 0.05 0.03 0.02 0.03 0.03 0.02 0.02 0.02 0.01 0.05 0.08 0.12 0.23 0.13 0.06 0.17 0.26 0.22 0.19 0.22 0.15 0.08 0.06 0.04 0.02 0.02 0.02 0.01
0.00 0.00 0.00 0.00 0.00 0.00 0.00 0.00 0.00 0.00 0.00 0.00 0.01 0.02 0.03 0.02 0.04 0.03 0.03 0.02 0.02 0.02 0.03 0.02 0.03 0.04 0.08 0.16 0.24 0.18 0.09 0.12 0.18 0.16 0.14 0.11 0.11 0.05 0.05 0.04 0.03 0.03 0.01
0.00 0.00 0.00 0.00 0.00 0.00 0.00 0.00 0.00 0.00 0.00 0.01 0.02 0.03 0.05 0.04 0.05 0.04 0.02 0.02 0.02 0.01 0.02 0.02 0.02 0.02 0.01 0.07 0.17 0.25 0.24 0.11 0.11 0.18 0.16 0.11 0.10 0.07 0.07 0.07 0.04 0.03 0.03
0.00 0.00 0.00 0.00 0.00 0.00 0.00 0.00 0.00 0.00 0.00 0.02 0.03 0.05 0.05 0.05 0.07 0.05 0.03 0.03 0.03 0.01 0.01 0.01 0.01 0.01 0.02 0.04 0.06 0.11 0.22 0.29 0.28 0.30 0.34 0.29 0.27 0.27 0.18 0.13 0.12 0.11 0.11
0.00 0.00 0.00 0.00 0.00 0.00 0.00 0.00 0.00 0.00 0.00 0.03 0.05 0.07 0.08 0.08 0.08 0.07 0.04 0.02 0.03 0.01 0.00 0.00 0.00 0.00 0.00 0.03 0.13 0.21 0.28 0.37 0.51 0.42 0.36 0.37 0.42 0.43 0.38 0.28 0.23 0.20 0.19
0.00 0.00 0.00 0.00 0.00 0.00 0.00 0.00 0.00 0.01 0.01 0.03 0.07 0.08 0.08 0.09 0.08 0.07 0.04 0.03 0.02 0.01 0.00 0.00 0.00 0.00 0.00 0.02 0.06 0.17 0.21 0.38 0.55 0.53 0.56 0.50 0.55 0.50 0.43 0.38 0.33 0.33 0.29
0.00 0.00 0.00 0.00 0.00 0.00 0.00 0.00 0.00 0.02 0.01 0.02 0.07 0.09 0.07 0.07 0.10 0.09 0.03 0.02 0.01 0.00 0.00 0.00 0.00 0.00 0.01 0.02 0.02 0.02 0.09 0.22 0.41 0.49 0.53 0.58 0.60 0.52 0.42 0.43 0.44 0.32 0.21
0.00 0.00 0.00 0.00 0.00 0.00 0.00 0.00 0.00 0.02 0.04 0.04 0.06 0.10 0.10 0.09 0.14 0.16 0.03 0.01 0.01 0.01 0.00 0.00 0.00 0.00 0.00 0.03 0.01 0.01 0.02 0.08 0.17 0.28 0.40 0.47 0.47 0.49 0.37 0.33 0.32 0.21 0.15
0.00 0.00 0.00 0.00 0.00 0.00 0.00 0.00 0.00 0.03 0.07 0.13 0.14 0.17 0.17 0.16 0.19 0.16 0.04 0.01 0.01 0.01 0.01 0.01 0.00 0.01 0.00 0.02 0.04 0.02 0.00 0.02 0.04 0.06 0.14 0.26 0.28 0.27 0.22 0.16 0.13 0.12 0.11
0.00 0.00 0.00 0.00 0.00 0.00 0.00 0.00 0.00 0.02 0.14 0.13 0.23 0.20 0.20 0.24 0.21 0.13 0.03 0.01 0.01 0.02 0.02 0.01 0.01 0.00 0.01 0.02 0.04 0.04 0.00 0.00 0.01 0.01 0.02 0.05 0.09 0.08 0.06 0.05 0.02 0.03 0.02
0.00 0.00 0.00 0.00 0.00 0.00 0.00 0.00 0.00 0.01 0.09 0.27 0.24 0.36 0.31 0.19 0.17 0.12 0.04 0.02 0.02 0.02 0.02 0.01 0.01 0.01 0.01 0.03 0.04 0.05 0.04 0.02 0.00 0.00 0.00 0.00 0.01 0.03 0.02 0.01 0.01 0.01 0.00
0.00 0.00 0.00 0.00 0.00 0.00 0.00 0.00 0.00 0.01 0.07 0.26 0.40 0.45 0.44 0.32 0.25 0.22 0.08 0.04 0.06 0.03 0.02 0.01 0.01 0.01 0.01 0.03 0.06 0.06 0.05 0.05 0.01 0.01 0.01 0.01 0.00 0.01 0.01 0.01 0.01 0.02 0.01
0.00 0.00 0.00 0.00 0.00 0.00 0.00 0.00 0.00 0.01 0.10 0.17 0.42 0.56 0.76 0.57 0.45 0.37 0.19 0.07 0.06 0.07 0.04 0.01 0.01 0.01 0.01 0.01 0.02 0.04 0.07 0.08 0.05 0.04 0.02 0.02 0.02 0.02 0.03 0.03 0.03 0.02 0.01
0.00 0.00 0.00 0.00 0.00 0.00 0.00 0.00 0.01 0.01 0.04 0.18 0.37 0.55 0.78 0.96 0.62 0.44 0.31 0.15 0.16 0.13 0.05 0.02 0.01 0.01 0.02 0.05 0.05 0.03 0.02 0.03 0.06 0.04 0.05 0.05 0.04 0.03 0.02 0.01 0.01 0.01 0.01
0.00 0.00 0.00 0.00 0.01 0.00 0.00 0.01 0.02 0.03 0.03 0.18 0.35 0.51 0.69 0.92 1.08 0.71 0.50 0.48 0.40 0.32 0.33 0.33 0.22 0.23 0.20 0.18 0.15 0.16 0.18 0.16 0.13 0.06 0.07 0.09 0.07 0.04 0.03 0.02 0.01 0.00 0.00

GFSMW_prec_precacc6_129.txt.gz
Total_Precipitation_Accumulation
0.00 0.00 0.00 0.00 0.00 0.00 0.00 0.00 0.00 0.00 0.00 0.00 0.01 0.00 0.00 0.00 0.00 0.00 0.01 0.02 0.03 0.04 0.04 0.02 0.02 0.01 0.03 0.01 0.04 0.12 0.12 0.13 0.23 0.34 0.21 0.12 0.01 0.00 0.00 0.00 0.00 0.00 0.00
0.00 0.00 0.00 0.00 0.00 0.00 0.00 0.00 0.00 0.00 0.00 0.00 0.00 0.00 0.00 0.01 0.00 0.00 0.00 0.01 0.03 0.03 0.03 0.02 0.02 0.01 0.02 0.01 0.03 0.11 0.16 0.08 0.16 0.22 0.13 0.08 0.07 0.02 0.00 0.00 0.00 0.00 0.00
0.00 0.00 0.00 0.00 0.00 0.00 0.00 0.00 0.00 0.00 0.00 0.00 0.00 0.00 0.00 0.01 0.00 0.01 0.00 0.01 0.02 0.04 0.04 0.03 0.02 0.02 0.02 0.03 0.03 0.05 0.10 0.09 0.08 0.12 0.05 0.02 0.02 0.02 0.01 0.00 0.00 0.00 0.00
0.00 0.00 0.00 0.00 0.00 0.00 0.00 0.00 0.00 0.00 0.00 0.00 0.00 0.00 0.00 0.00 0.00 0.00 0.01 0.01 0.01 0.04 0.05 0.06 0.05 0.04 0.03 0.04 0.03 0.05 0.09 0.07 0.07 0.09 0.03 0.00 0.00 0.01 0.01 0.00 0.00 0.00 0.00
0.00 0.00 0.00 0.00 0.00 0.00 0.00 0.00 0.00 0.00 0.00 0.00 0.00 0.00 0.00 0.00 0.00 0.00 0.01 0.00 0.01 0.02 0.03 0.04 0.06 0.05 0.04 0.03 0.02 0.06 0.16 0.12 0.04 0.02 0.02 0.00 0.00 0.00 0.00 0.00 0.00 0.00 0.00
0.00 0.00 0.00 0.00 0.00 0.00 0.00 0.00 0.00 0.00 0.00 0.00 0.00 0.00 0.00 0.00 0.01 0.01 0.00 0.00 0.01 0.01 0.02 0.03 0.04 0.04 0.03 0.03 0.07 0.12 0.15 0.18 0.13 0.07 0.05 0.01 0.01 0.00 0.00 0.00 0.00 0.00 0.00
0.00 0.00 0.00 0.00 0.00 0.00 0.00 0.00 0.00 0.00 0.00 0.00 0.00 0.01 0.02 0.02 0.03 0.02 0.01 0.01 0.01 0.01 0.01 0.03 0.02 0.01 0.00 0.01 0.04 0.15 0.26 0.23 0.21 0.13 0.08 0.03 0.02 0.00 0.00 0.00 0.00 0.00 0.00
0.00 0.00 0.00 0.00 0.00 0.00 0.00 0.00 0.00 0.00 0.00 0.00 0.00 0.00 0.01 0.03 0.03 0.05 0.02 0.01 0.00 0.00 0.00 0.01 0.01 0.01 0.00 0.01 0.04 0.08 0.21 0.31 0.29 0.30 0.24 0.08 0.03 0.03 0.01 0.00 0.00 0.00 0.01
0.01 0.00 0.00 0.00 0.00 0.00 0.00 0.00 0.00 0.00 0.00 0.00 0.00 0.00 0.01 0.01 0.03 0.04 0.03 0.02 0.01 0.00 0.02 0.00 0.01 0.01 0.00 0.01 0.05 0.11 0.21 0.31 0.38 0.34 0.32 0.12 0.05 0.03 0.02 0.01 0.00 0.00 0.00
0.01 0.00 0.00 0.00 0.00 0.00 0.00 0.00 0.00 0.00 0.00 0.00 0.00 0.00 0.01 0.01 0.03 0.04 0.05 0.04 0.02 0.01 0.02 0.01 0.00 0.00 0.00 0.00 0.05 0.16 0.29 0.34 0.37 0.51 0.45 0.20 0.14 0.08 0.04 0.02 0.01 0.01 0.00
0.00 0.00 0.00 0.00 0.00 0.00 0.00 0.00 0.00 0.00 0.00 0.00 0.00 0.01 0.01 0.01 0.02 0.06 0.07 0.05 0.02 0.01 0.04 0.02 0.00 0.00 0.00 0.00 0.01 0.07 0.24 0.34 0.35 0.47 0.45 0.28 0.19 0.21 0.07 0.04 0.04 0.03 0.01
0.00 0.00 0.00 0.00 0.00 0.00 0.00 0.00 0.00 0.00 0.00 0.00 0.00 0.01 0.01 0.01 0.03 0.04 0.08 0.07 0.05 0.03 0.04 0.05 0.00 0.00 0.00 0.00 0.01 0.02 0.08 0.20 0.26 0.37 0.50 0.36 0.25 0.33 0.19 0.11 0.05 0.06 0.02
0.00 0.00 0.00 0.00 0.00 0.00 0.00 0.00 0.00 0.00 0.00 0.00 0.00 0.01 0.01 0.02 0.04 0.03 0.06 0.08 0.10 0.07 0.05 0.04 0.03 0.01 0.00 0.00 0.01 0.02 0.03 0.08 0.16 0.22 0.32 0.40 0.33 0.25 0.25 0.19 0.10 0.05 0.03
0.00 0.00 0.00 0.00 0.00 0.00 0.00 0.00 0.00 0.00 0.00 0.00 0.00 0.00 0.01 0.03 0.04 0.04 0.05 0.09 0.12 0.07 0.07 0.05 0.05 0.01 0.00 0.00 0.01 0.03 0.05 0.05 0.09 0.15 0.19 0.24 0.34 0.23 0.17 0.16 0.10 0.03 0.02
0.00 0.00 0.00 0.00 0.00 0.00 0.00 0.00 0.00 0.00 0.00 0.00 0.00 0.00 0.01 0.03 0.07 0.07 0.06 0.06 0.14 0.11 0.06 0.06 0.06 0.02 0.02 0.03 0.01 0.00 0.01 0.05 0.07 0.09 0.14 0.17 0.24 0.30 0.20 0.14 0.11 0.09 0.06
0.00 0.00 0.00 0.00 0.00 0.00 0.00 0.00 0.00 0.00 0.00 0.00 0.00 0.00 0.01 0.04 0.08 0.08 0.07 0.05 0.09 0.07 0.03 0.02 0.02 0.03 0.04 0.05 0.04 0.03 0.02 0.05 0.19 0.17 0.15 0.21 0.25 0.29 0.34 0.22 0.18 0.14 0.13
0.00 0.00 0.00 0.00 0.00 0.00 0.00 0.00 0.00 0.00 0.00 0.00 0.00 0.00 0.02 0.05 0.06 0.07 0.09 0.08 0.07 0.04 0.02 0.01 0.00 0.00 0.01 0.03 0.03 0.05 0.06 0.15 0.27 0.28 0.39 0.48 0.45 0.36 0.37 0.35 0.33 0.32 0.25
0.01 0.00 0.00 0.00 0.00 0.00 0.00 0.00 0.00 0.00 0.00 0.00 0.00 0.00 0.01 0.04 0.08 0.13 0.13 0.13 0.10 0.04 0.01 0.01 0.00 0.00 0.01 0.02 0.04 0.04 0.02 0.08 0.21 0.35 0.42 0.60 0.73 0.56 0.45 0.49 0.63 0.55 0.37
0.00 0.00 0.00 0.00 0.00 0.00 0.00 0.00 0.00 0.00 0.00 0.00 0.00 0.01 0.02 0.06 0.12 0.22 0.24 0.13 0.10 0.05 0.01 0.01 0.00 0.00 0.00 0.03 0.03 0.02 0.00 0.02 0.09 0.20 0.31 0.47 0.56 0.69 0.58 0.52 0.62 0.58 0.48
0.00 0.00 0.00 0.00 0.00 0.00 0.00 0.00 0.00 0.00 0.00 0.00 0.00 0.02 0.07 0.13 0.20 0.21 0.16 0.13 0.13 0.05 0.03 0.02 0.01 0.02 0.01 0.01 0.03 0.03 0.00 0.00 0.01 0.03 0.11 0.31 0.48 0.54 0.55 0.50 0.44 0.43 0.41
0.00 0.00 0.00 0.00 0.00 0.00 0.00 0.00 0.00 0.00 0.00 0.00 0.01 0.03 0.09 0.21 0.23 0.18 0.16 0.16 0.15 0.07 0.04 0.03 0.02 0.01 0.01 0.01 0.02 0.03 0.01 0.00 0.00 0.00 0.00 0.04 0.15 0.26 0.33 0.32 0.27 0.30 0.25
0.00 0.00 0.00 0.00 0.00 0.00 0.00 0.00 0.00 0.00 0.00 0.00 0.00 0.04 0.10 0.16 0.20 0.19 0.15 0.19 0.24 0.18 0.07 0.03 0.03 0.02 0.01 0.02 0.02 0.03 0.04 0.03 0.00 0.00 0.00 0.01 0.03 0.08 0.11 0.11 0.12 0.10 0.07
0.00 0.00 0.00 0.00 0.00 0.00 0.00 0.00 0.00 0.00 0.00 0.00 0.01 0.05 0.11 0.20 0.24 0.33 0.29 0.25 0.25 0.20 0.09 0.03 0.03 0.02 0.02 0.02 0.04 0.04 0.04 0.03 0.01 0.01 0.01 0.01 0.02 0.03 0.04 0.04 0.02 0.01 0.00
0.00 0.00 0.00 0.00 0.00 0.00 0.00 0.00 0.00 0.00 0.00 0.00 0.03 0.15 0.22 0.29 0.37 0.37 0.38 0.42 0.35 0.26 0.12 0.04 0.02 0.01 0.02 0.02 0.01 0.03 0.06 0.07 0.05 0.03 0.02 0.02 0.02 0.02 0.03 0.03 0.01 0.00 0.00
0.00 0.00 0.00 0.00 0.00 0.00 0.00 0.00 0.00 0.01 0.01 0.02 0.04 0.13 0.33 0.39 0.45 0.45 0.42 0.37 0.44 0.40 0.21 0.07 0.06 0.03 0.01 0.04 0.04 0.02 0.01 0.02 0.04 0.02 0.01 0.01 0.01 0.01 0.01 0.01 0.01 0.02 0.03
0.00 0.00 0.00 0.00 0.01 0.01 0.02 0.01 0.01 0.03 0.04 0.06 0.13 0.17 0.28 0.46 0.55 0.53 0.53 0.58 0.50 0.42 0.47 0.37 0.21 0.16 0.14 0.09 0.08 0.10 0.12 0.11 0.08 0.03 0.04 0.06 0.05 0.05 0.04 0.04 0.03 0.02 0.01

GFSMW_prec_precacc6_132.txt.gz
Total_Precipitation_Accumulation
0.00 0.00 0.00 0.00 0.00 0.00 0.00 0.00 0.00 0.00 0.06 0.05 0.05 0.03 0.02 0.02 0.01 0.01 0.00 0.01 0.04 0.13 0.16 0.15 0.09 0.03 0.06 0.11 0.07 0.01 0.02 0.01 0.13 0.31 0.27 0.19 0.06 0.01 0.00 0.00 0.00 0.00 0.00
0.00 0.00 0.00 0.00 0.00 0.00 0.00 0.00 0.00 0.00 0.00 0.00 0.01 0.02 0.00 0.00 0.00 0.00 0.00 0.01 0.04 0.09 0.12 0.12 0.13 0.07 0.05 0.03 0.04 0.01 0.02 0.01 0.03 0.18 0.13 0.12 0.14 0.06 0.00 0.00 0.00 0.00 0.00
0.00 0.00 0.00 0.00 0.00 0.00 0.00 0.00 0.00 0.00 0.00 0.00 0.00 0.00 0.00 0.00 0.00 0.00 0.00 0.00 0.03 0.05 0.09 0.13 0.11 0.05 0.03 0.03 0.04 0.02 0.02 0.02 0.02 0.05 0.05 0.03 0.06 0.02 0.01 0.00 0.00 0.00 0.00
0.00 0.00 0.00 0.00 0.00 0.00 0.00 0.00 0.00 0.00 0.00 0.00 0.00 0.00 0.00 0.00 0.00 0.00 0.00 0.03 0.05 0.08 0.09 0.11 0.12 0.11 0.08 0.07 0.06 0.02 0.01 0.02 0.02 0.04 0.01 0.00 0.00 0.00 0.01 0.00 0.00 0.00 0.00
0.00 0.00 0.00 0.00 0.00 0.00 0.00 0.00 0.00 0.00 0.00 0.00 0.00 0.00 0.00 0.00 0.00 0.00 0.01 0.02 0.02 0.04 0.06 0.07 0.12 0.11 0.10 0.07 0.06 0.04 0.02 0.02 0.02 0.01 0.01 0.00 0.00 0.00 0.00 0.00 0.01 0.01 0.00
0.00 0.00 0.00 0.00 0.00 0.00 0.00 0.00 0.00 0.00 0.00 0.00 0.00 0.00 0.00 0.00 0.00 0.00 0.02 0.04 0.02 0.02 0.03 0.05 0.08 0.10 0.09 0.08 0.06 0.03 0.02 0.03 0.05 0.06 0.04 0.01 0.00 0.00 0.00 0.00 0.00 0.00 0.00
0.00 0.00 0.00 0.00 0.00 0.00 0.00 0.00 0.00 0.00 0.00 0.00 0.00 0.00 0.00 0.01 0.03 0.04 0.03 0.03 0.03 0.02 0.02 0.04 0.04 0.08 0.10 0.07 0.06 0.03 0.03 0.08 0.11 0.09 0.08 0.06 0.03 0.00 0.00 0.00 0.00 0.00 0.00
0.00 0.00 0.00 0.00 0.00 0.00 0.00 0.00 0.00 0.00 0.00 0.00 0.00 0.00 0.00 0.02 0.03 0.05 0.04 0.02 0.01 0.00 0.01 0.02 0.03 0.04 0.12 0.08 0.05 0.03 0.03 0.13 0.18 0.25 0.23 0.17 0.13 0.05 0.02 0.00 0.00 0.00 0.00
0.01 0.01 0.00 0.00 0.00 0.00 0.00 0.00 0.00 0.00 0.00 0.00 0.00 0.00 0.00 0.01 0.02 0.04 0.06 0.05 0.03 0.02 0.02 0.01 0.02 0.02 0.08 0.04 0.04 0.02 0.02 0.10 0.21 0.26 0.29 0.21 0.21 0.17 0.09 0.03 0.01 0.00 0.00
0.03 0.01 0.00 0.00 0.00 0.00 0.00 0.00 0.00 0.00 0.00 0.00 0.00 0.00 0.00 0.00 0.01 0.03 0.05 0.06 0.04 0.03 0.04 0.02 0.01 0.04 0.06 0.05 0.03 0.02 0.02 0.08 0.16 0.38 0.45 0.37 0.32 0.29 0.16 0.07 0.03 0.01 0.00
0.03 0.02 0.00 0.00 0.00 0.00 0.00 0.00 0.00 0.00 0.00 0.00 0.00 0.00 0.00 0.00 0.01 0.04 0.06 0.08 0.08 0.09 0.08 0.04 0.01 0.02 0.04 0.04 0.02 0.01 0.01 0.06 0.13 0.21 0.34 0.43 0.48 0.53 0.27 0.10 0.05 0.03 0.01
0.04 0.05 0.02 0.00 0.00 0.00 0.00 0.00 0.00 0.00 0.00 0.00 0.00 0.00 0.00 0.01 0.01 0.02 0.06 0.07 0.09 0.10 0.13 0.10 0.02 0.01 0.01 0.00 0.01 0.01 0.01 0.02 0.07 0.19 0.32 0.34 0.46 0.61 0.44 0.29 0.11 0.06 0.02
0.04 0.02 0.02 0.01 0.00 0.00 0.00 0.00 0.00 0.00 0.00 0.00 0.00 0.00 0.00 0.01 0.01 0.01 0.04 0.08 0.13 0.16 0.13 0.11 0.05 0.01 0.01 0.00 0.00 0.00 0.00 0.00 0.02 0.07 0.20 0.36 0.44 0.51 0.58 0.51 0.29 0.13 0.06
0.02 0.01 0.01 0.01 0.00 0.00 0.00 0.00 0.00 0.00 0.00 0.00 0.00 0.00 0.00 0.01 0.01 0.01 0.03 0.07 0.14 0.18 0.15 0.10 0.08 0.05 0.01 0.00 0.00 0.00 0.00 0.00 0.00 0.02 0.08 0.18 0.37 0.37 0.42 0.41 0.43 0.25 0.10
0.02 0.01 0.00 0.01 0.00 0.00 0.00 0.00 0.00 0.00 0.00 0.00 0.00 0.00 0.00 0.00 0.02 0.03 0.04 0.04 0.12 0.18 0.16 0.15 0.14 0.07 0.03 0.01 0.00 0.00 0.00 0.00 0.00 0.00 0.01 0.07 0.14 0.27 0.36 0.37 0.40 0.36 0.13
0.00 0.00 0.00 0.00 0.00 0.00 0.00 0.00 0.00 0.00 0.00 0.00 0.00 0.00 0.00 0.00 0.01 0.02 0.04 0.04 0.08 0.15 0.22 0.11 0.08 0.07 0.06 0.05 0.01 0.00 0.00 0.00 0.00 0.01 0.04 0.11 0.14 0.18 0.40 0.39 0.29 0.26 0.19
0.00 0.00 0.00 0.00 0.00 0.00 0.00 0.00 0.00 0.00 0.00 0.00 0.00 0.00 0.00 0.00 0.01 0.02 0.06 0.07 0.07 0.07 0.14 0.28 0.19 0.03 0.02 0.05 0.03 0.04 0.02 0.02 0.03 0.04 0.15 0.29 0.27 0.27 0.37 0.48 0.40 0.28 0.23
0.00 0.00 0.00 0.00 0.00 0.00 0.00 0.00 0.00 0.00 0.00 0.00 0.00 0.00 0.00 0.00 0.01 0.06 0.11 0.13 0.11 0.07 0.06 0.09 0.27 0.18 0.01 0.03 0.03 0.05 0.01 0.01 0.03 0.09 0.13 0.30 0.49 0.38 0.42 0.60 0.67 0.59 0.36
0.00 0.00 0.00 0.00 0.00 0.00 0.00 0.00 0.00 0.00 0.00 0.00 0.00 0.00 0.00 0.00 0.00 0.06 0.22 0.18 0.14 0.16 0.09 0.04 0.02 0.01 0.01 0.02 0.03 0.04 0.02 0.03 0.03 0.04 0.08 0.23 0.35 0.57 0.51 0.49 0.67 0.75 0.59
0.00 0.00 0.00 0.00 0.00 0.00 0.00 0.00 0.00 0.00 0.00 0.00 0.00 0.00 0.00 0.00 0.01 0.05 0.12 0.13 0.18 0.13 0.21 0.26 0.09 0.02 0.01 0.01 0.02 0.03 0.01 0.02 0.02 0.02 0.05 0.19 0.34 0.50 0.58 0.53 0.50 0.59 0.64
0.00 0.00 0.00 0.00 0.00 0.00 0.00 0.00 0.00 0.00 0.00 0.00 0.00 0.00 0.00 0.00 0.02 0.05 0.13 0.16 0.16 0.22 0.18 0.19 0.26 0.13 0.01 0.01 0.01 0.02 0.01 0.01 0.01 0.01 0.00 0.02 0.10 0.27 0.47 0.53 0.53 0.58 0.54
0.00 0.00 0.00 0.00 0.00 0.00 0.00 0.00 0.00 0.00 0.00 0.00 0.00 0.00 0.00 0.00 0.03 0.07 0.12 0.17 0.22 0.23 0.23 0.18 0.14 0.12 0.03 0.02 0.02 0.02 0.03 0.04 0.00 0.00 0.00 0.01 0.02 0.08 0.20 0.32 0.39 0.43 0.37
0.00 0.00 0.00 0.00 0.00 0.00 0.00 0.00 0.00 0.00 0.00 0.00 0.00 0.00 0.00 0.00 0.02 0.11 0.22 0.21 0.20 0.23 0.26 0.26 0.21 0.11 0.03 0.02 0.02 0.02 0.03 0.03 0.02 0.01 0.02 0.02 0.03 0.04 0.06 0.11 0.14 0.14 0.12
0.00 0.00 0.00 0.00 0.00 0.00 0.00 0.00 0.00 0.00 0.00 0.00 0.00 0.00 0.00 0.00 0.01 0.04 0.23 0.38 0.31 0.23 0.23 0.27 0.27 0.22 0.07 0.02 0.01 0.01 0.04 0.05 0.04 0.04 0.02 0.02 0.03 0.02 0.03 0.03 0.03 0.02 0.02
0.00 0.00 0.00 0.00 0.00 0.00 0.00 0.00 0.00 0.00 0.01 0.01 0.01 0.00 0.00 0.01 0.01 0.09 0.21 0.29 0.34 0.39 0.29 0.25 0.28 0.29 0.18 0.05 0.02 0.01 0.00 0.01 0.02 0.01 0.01 0.01 0.00 0.01 0.00 0.00 0.00 0.02 0.03
0.00 0.00 0.00 0.00 0.00 0.01 0.02 0.01 0.00 0.01 0.02 0.02 0.02 0.02 0.01 0.02 0.07 0.10 0.23 0.37 0.36 0.39 0.52 0.48 0.36 0.39 0.39 0.20 0.09 0.05 0.05 0.05 0.04 0.02 0.02 0.02 0.01 0.01 0.01 0.02 0.02 0.04 0.06